GFSNW_prec_pwat_045.txt.gz
Precipitable_Water
1.12 0.78 0.74 0.78 0.81 0.80 0.81 0.61 0.39 0.93 0.96 0.55 0.49 0.31 0.31 0.44 0.45 0.45 0.33 0.30 0.28 0.23 0.26 0.24 0.22 0.21 0.25 0.37 0.34 0.29 0.37 0.32 0.26 0.29 0.33 0.34 0.31 0.26 0.23 0.14 0.13 0.18 0.15 0.10
1.09 0.75 0.79 0.81 0.82 0.82 0.74 0.51 0.58 0.97 0.77 0.40 0.36 0.36 0.35 0.45 0.44 0.39 0.34 0.32 0.36 0.37 0.31 0.27 0.32 0.31 0.40 0.42 0.38 0.32 0.36 0.30 0.23 0.24 0.28 0.32 0.25 0.24 0.22 0.19 0.19 0.13 0.10 0.09
0.94 0.78 0.80 0.82 0.82 0.85 0.79 0.59 0.43 0.67 0.67 0.51 0.36 0.32 0.37 0.39 0.51 0.43 0.41 0.37 0.41 0.35 0.33 0.38 0.35 0.35 0.41 0.44 0.43 0.41 0.39 0.30 0.25 0.18 0.20 0.25 0.21 0.23 0.24 0.19 0.13 0.11 0.11 0.11
0.83 0.81 0.81 0.83 0.83 0.87 0.81 0.59 0.46 0.56 0.44 0.41 0.34 0.36 0.40 0.40 0.40 0.46 0.45 0.38 0.36 0.32 0.29 0.33 0.35 0.42 0.42 0.47 0.50 0.43 0.33 0.23 0.26 0.27 0.27 0.25 0.21 0.18 0.20 0.17 0.16 0.11 0.11 0.12
0.82 0.82 0.81 0.85 0.85 0.91 0.78 0.51 0.47 0.51 0.46 0.42 0.32 0.36 0.38 0.40 0.44 0.43 0.37 0.35 0.37 0.37 0.31 0.31 0.32 0.40 0.40 0.36 0.44 0.39 0.36 0.22 0.24 0.21 0.26 0.24 0.19 0.21 0.19 0.20 0.18 0.18 0.17 0.14
0.83 0.80 0.83 0.85 0.86 0.88 0.74 0.76 0.63 0.46 0.45 0.38 0.31 0.33 0.39 0.40 0.50 0.47 0.44 0.38 0.36 0.34 0.39 0.45 0.47 0.47 0.43 0.41 0.36 0.34 0.30 0.25 0.21 0.15 0.22 0.21 0.15 0.17 0.18 0.19 0.19 0.18 0.14 0.15
0.80 0.81 0.85 0.86 0.86 0.87 0.80 0.77 0.60 0.43 0.34 0.35 0.30 0.35 0.43 0.43 0.49 0.43 0.45 0.41 0.31 0.39 0.52 0.49 0.47 0.45 0.43 0.42 0.37 0.36 0.25 0.23 0.21 0.15 0.16 0.09 0.13 0.19 0.18 0.16 0.18 0.20 0.20 0.22
0.79 0.83 0.86 0.86 0.86 0.91 0.89 0.83 0.65 0.50 0.32 0.35 0.34 0.36 0.42 0.51 0.52 0.45 0.42 0.42 0.45 0.52 0.45 0.36 0.33 0.34 0.36 0.40 0.43 0.39 0.35 0.25 0.19 0.14 0.13 0.14 0.13 0.15 0.15 0.15 0.13 0.20 0.21 0.27
0.82 0.85 0.87 0.85 0.86 0.91 0.95 0.85 0.81 0.63 0.40 0.31 0.38 0.36 0.41 0.45 0.44 0.43 0.43 0.49 0.52 0.47 0.38 0.33 0.24 0.22 0.28 0.27 0.34 0.45 0.41 0.37 0.26 0.21 0.13 0.10 0.13 0.20 0.28 0.26 0.12 0.23 0.27 0.29
0.86 0.88 0.85 0.84 0.85 0.93 0.94 0.83 0.86 0.67 0.49 0.52 0.43 0.34 0.35 0.51 0.45 0.39 0.41 0.43 0.44 0.47 0.33 0.28 0.26 0.25 0.31 0.24 0.22 0.25 0.29 0.30 0.24 0.21 0.17 0.18 0.21 0.27 0.31 0.13 0.13 0.26 0.29 0.31
0.90 0.86 0.84 0.84 0.86 0.92 0.90 0.83 0.92 0.68 0.59 0.59 0.58 0.50 0.41 0.45 0.44 0.34 0.43 0.43 0.45 0.41 0.32 0.31 0.29 0.27 0.28 0.27 0.29 0.28 0.25 0.23 0.21 0.22 0.19 0.14 0.26 0.28 0.19 0.24 0.29 0.31 0.34 0.36
0.89 0.88 0.87 0.84 0.82 0.86 0.90 0.75 0.96 0.96 0.77 0.61 0.70 0.68 0.72 0.60 0.52 0.45 0.50 0.45 0.45 0.46 0.39 0.35 0.33 0.29 0.31 0.27 0.20 0.34 0.22 0.27 0.22 0.22 0.18 0.26 0.29 0.29 0.35 0.36 0.34 0.37 0.41 0.45
0.95 0.94 0.88 0.81 0.79 0.84 0.85 0.82 0.91 0.94 0.83 0.66 0.66 0.65 0.81 0.86 0.79 0.76 0.46 0.52 0.57 0.51 0.52 0.41 0.36 0.27 0.31 0.22 0.23 0.26 0.30 0.34 0.25 0.24 0.24 0.26 0.31 0.35 0.38 0.42 0.43 0.46 0.48 0.49
1.00 0.95 0.88 0.80 0.81 0.85 0.83 0.85 1.00 0.96 0.81 0.61 0.63 0.89 0.79 0.88 0.83 0.75 0.71 0.64 0.64 0.58 0.52 0.40 0.35 0.28 0.36 0.27 0.29 0.27 0.29 0.30 0.26 0.26 0.29 0.33 0.34 0.39 0.42 0.44 0.47 0.48 0.51 0.54
1.01 0.93 0.86 0.85 0.88 0.85 0.81 0.85 0.90 0.94 0.67 0.55 0.65 0.78 0.83 0.86 0.83 0.75 0.73 0.65 0.57 0.50 0.43 0.40 0.36 0.40 0.37 0.37 0.33 0.26 0.32 0.29 0.26 0.24 0.33 0.34 0.36 0.45 0.50 0.48 0.50 0.54 0.55 0.56
0.99 0.93 0.91 0.90 0.90 0.86 0.72 0.66 0.85 0.84 0.79 0.59 0.52 0.78 0.79 0.85 0.84 0.75 0.70 0.67 0.62 0.59 0.52 0.48 0.48 0.48 0.38 0.31 0.28 0.34 0.39 0.42 0.43 0.38 0.48 0.49 0.51 0.54 0.56 0.55 0.57 0.57 0.57 0.57
0.99 0.95 0.90 0.86 0.83 0.75 0.62 0.57 0.70 0.74 0.67 0.48 0.47 0.52 0.69 0.77 0.76 0.73 0.69 0.71 0.62 0.57 0.49 0.44 0.44 0.44 0.46 0.38 0.28 0.38 0.45 0.49 0.52 0.55 0.54 0.49 0.54 0.52 0.59 0.58 0.57 0.57 0.58 0.57
0.91 0.89 0.87 0.85 0.82 0.81 0.70 0.77 0.76 0.69 0.51 0.45 0.35 0.36 0.48 0.68 0.54 0.48 0.59 0.48 0.51 0.49 0.46 0.46 0.41 0.45 0.44 0.32 0.40 0.46 0.51 0.53 0.54 0.55 0.58 0.56 0.57 0.56 0.55 0.56 0.57 0.57 0.59 0.61
0.90 0.87 0.79 0.73 0.66 0.61 0.68 0.77 0.72 0.65 0.46 0.33 0.33 0.27 0.26 0.53 0.45 0.46 0.47 0.49 0.36 0.47 0.39 0.40 0.44 0.38 0.32 0.39 0.43 0.47 0.51 0.51 0.53 0.55 0.55 0.54 0.55 0.55 0.56 0.57 0.59 0.58 0.55 0.52
0.79 0.69 0.56 0.51 0.67 0.77 0.69 0.55 0.45 0.43 0.45 0.42 0.31 0.39 0.31 0.43 0.43 0.40 0.40 0.44 0.38 0.31 0.38 0.48 0.39 0.37 0.46 0.48 0.50 0.53 0.55 0.56 0.55 0.52 0.52 0.55 0.54 0.56 0.57 0.55 0.53 0.50 0.46 0.43
0.68 0.60 0.60 0.74 0.79 0.62 0.52 0.42 0.39 0.42 0.37 0.43 0.43 0.44 0.39 0.54 0.41 0.40 0.46 0.39 0.40 0.30 0.36 0.37 0.35 0.33 0.41 0.50 0.53 0.58 0.60 0.61 0.60 0.61 0.61 0.60 0.57 0.52 0.49 0.46 0.43 0.39 0.35 0.31
0.75 0.75 0.78 0.72 0.62 0.54 0.46 0.43 0.47 0.43 0.40 0.49 0.47 0.49 0.52 0.53 0.57 0.46 0.47 0.39 0.40 0.30 0.45 0.36 0.29 0.38 0.47 0.52 0.55 0.58 0.61 0.61 0.59 0.58 0.54 0.51 0.48 0.44 0.39 0.36 0.33 0.31 0.29 0.27
0.84 0.72 0.64 0.60 0.58 0.46 0.42 0.37 0.40 0.41 0.50 0.53 0.52 0.47 0.53 0.54 0.53 0.46 0.43 0.36 0.33 0.44 0.34 0.30 0.34 0.43 0.52 0.55 0.57 0.55 0.55 0.53 0.50 0.47 0.46 0.43 0.40 0.37 0.33 0.30 0.29 0.28 0.26 0.26
0.65 0.59 0.48 0.48 0.43 0.45 0.46 0.45 0.46 0.52 0.53 0.52 0.51 0.46 0.46 0.50 0.45 0.45 0.37 0.41 0.42 0.31 0.28 0.30 0.42 0.49 0.53 0.54 0.52 0.49 0.45 0.45 0.43 0.40 0.38 0.35 0.34 0.32 0.30 0.28 0.27 0.26 0.24 0.25
0.55 0.53 0.40 0.43 0.48 0.50 0.51 0.53 0.51 0.53 0.56 0.53 0.51 0.51 0.52 0.48 0.46 0.48 0.45 0.39 0.33 0.34 0.33 0.41 0.49 0.53 0.53 0.50 0.47 0.44 0.42 0.40 0.38 0.37 0.36 0.34 0.32 0.29 0.27 0.28 0.27 0.26 0.24 0.23
0.58 0.53 0.47 0.50 0.48 0.48 0.51 0.52 0.51 0.59 0.59 0.60 0.57 0.49 0.45 0.43 0.45 0.40 0.38 0.36 0.32 0.37 0.43 0.49 0.52 0.50 0.49 0.45 0.43 0.42 0.40 0.39 0.38 0.38 0.35 0.33 0.30 0.26 0.25 0.24 0.23 0.21 0.20 0.18
0.51 0.47 0.54 0.52 0.51 0.50 0.52 0.55 0.55 0.62 0.56 0.47 0.49 0.41 0.39 0.45 0.38 0.36 0.40 0.35 0.39 0.44 0.47 0.50 0.50 0.47 0.43 0.43 0.43 0.43 0.42 0.40 0.38 0.36 0.32 0.28 0.25 0.23 0.19 0.17 0.18 0.18 0.18 0.18

GFSNW_prec_pwat_048.txt.gz
Precipitable_Water
0.73 0.99 1.07 0.95 0.73 0.80 0.83 0.66 0.41 0.77 0.88 0.57 0.57 0.46 0.39 0.39 0.42 0.49 0.33 0.30 0.26 0.23 0.26 0.25 0.23 0.21 0.27 0.36 0.35 0.28 0.31 0.28 0.23 0.27 0.35 0.36 0.31 0.27 0.27 0.19 0.16 0.17 0.16 0.12
0.79 0.97 1.08 0.92 0.75 0.83 0.75 0.55 0.58 0.85 0.76 0.46 0.46 0.51 0.38 0.39 0.42 0.42 0.34 0.29 0.31 0.32 0.26 0.24 0.27 0.26 0.33 0.35 0.32 0.29 0.31 0.27 0.24 0.25 0.31 0.35 0.28 0.28 0.28 0.25 0.21 0.15 0.13 0.12
0.80 0.95 1.08 0.89 0.76 0.84 0.82 0.59 0.42 0.60 0.70 0.62 0.52 0.45 0.34 0.33 0.51 0.46 0.40 0.34 0.40 0.34 0.29 0.34 0.32 0.32 0.36 0.40 0.38 0.40 0.38 0.30 0.26 0.22 0.25 0.29 0.24 0.27 0.25 0.20 0.15 0.15 0.13 0.12
0.78 0.90 1.02 0.85 0.82 0.88 0.84 0.63 0.47 0.50 0.47 0.50 0.51 0.47 0.35 0.34 0.42 0.49 0.44 0.33 0.35 0.34 0.28 0.31 0.33 0.40 0.38 0.41 0.44 0.43 0.39 0.26 0.29 0.29 0.30 0.29 0.26 0.24 0.24 0.20 0.19 0.15 0.13 0.14
0.86 0.89 0.95 0.91 0.86 0.93 0.79 0.57 0.51 0.56 0.56 0.55 0.48 0.43 0.34 0.37 0.47 0.46 0.36 0.34 0.37 0.37 0.30 0.30 0.29 0.39 0.41 0.39 0.47 0.44 0.42 0.28 0.27 0.24 0.28 0.27 0.23 0.24 0.22 0.22 0.20 0.18 0.18 0.16
0.90 0.91 0.96 0.90 0.89 0.91 0.76 0.78 0.66 0.52 0.52 0.50 0.43 0.37 0.35 0.40 0.52 0.52 0.47 0.43 0.39 0.37 0.39 0.44 0.45 0.50 0.49 0.46 0.41 0.39 0.38 0.31 0.24 0.18 0.23 0.22 0.17 0.19 0.20 0.20 0.21 0.20 0.16 0.20
0.86 0.91 0.95 0.90 0.89 0.90 0.86 0.82 0.62 0.47 0.39 0.50 0.43 0.37 0.39 0.42 0.53 0.46 0.47 0.49 0.43 0.48 0.55 0.53 0.50 0.47 0.45 0.42 0.40 0.43 0.33 0.30 0.26 0.18 0.18 0.12 0.18 0.22 0.21 0.20 0.21 0.22 0.20 0.23
0.87 0.92 0.96 0.89 0.89 0.91 0.92 0.90 0.64 0.46 0.38 0.47 0.45 0.38 0.39 0.49 0.55 0.55 0.49 0.48 0.49 0.49 0.42 0.35 0.30 0.30 0.31 0.35 0.38 0.36 0.34 0.27 0.20 0.17 0.16 0.18 0.18 0.19 0.18 0.16 0.14 0.20 0.19 0.23
0.93 0.96 0.89 0.87 0.89 0.93 0.94 0.92 0.83 0.56 0.39 0.43 0.43 0.40 0.40 0.45 0.49 0.54 0.53 0.58 0.57 0.46 0.38 0.33 0.24 0.22 0.28 0.28 0.35 0.45 0.39 0.35 0.27 0.23 0.18 0.14 0.18 0.24 0.30 0.28 0.16 0.23 0.25 0.26
0.94 0.89 0.85 0.88 0.91 0.92 0.97 0.93 0.89 0.69 0.45 0.50 0.50 0.37 0.37 0.53 0.53 0.49 0.50 0.49 0.46 0.45 0.34 0.29 0.27 0.25 0.31 0.23 0.23 0.26 0.32 0.34 0.28 0.26 0.22 0.22 0.27 0.29 0.32 0.15 0.17 0.26 0.28 0.30
0.85 0.85 0.89 0.90 0.91 0.91 1.00 0.88 0.97 0.78 0.61 0.60 0.60 0.53 0.42 0.46 0.56 0.45 0.53 0.48 0.46 0.39 0.30 0.30 0.31 0.28 0.29 0.27 0.29 0.28 0.27 0.26 0.24 0.25 0.21 0.17 0.28 0.28 0.20 0.27 0.31 0.31 0.35 0.38
0.84 0.89 0.90 0.90 0.90 0.93 1.07 0.89 0.98 0.92 0.70 0.66 0.74 0.67 0.65 0.59 0.63 0.57 0.55 0.50 0.43 0.42 0.38 0.37 0.37 0.31 0.31 0.30 0.23 0.35 0.24 0.28 0.25 0.25 0.24 0.28 0.31 0.31 0.36 0.36 0.35 0.37 0.39 0.44
0.88 0.89 0.89 0.88 0.88 0.99 1.07 0.95 0.91 0.81 0.69 0.69 0.67 0.58 0.66 0.71 0.71 0.76 0.46 0.49 0.52 0.47 0.54 0.45 0.41 0.30 0.37 0.26 0.27 0.29 0.32 0.35 0.28 0.25 0.27 0.28 0.32 0.36 0.38 0.40 0.41 0.45 0.47 0.48
0.90 0.89 0.88 0.86 0.88 0.99 1.03 0.87 0.89 0.82 0.73 0.58 0.60 0.80 0.66 0.80 0.74 0.69 0.65 0.58 0.63 0.60 0.56 0.45 0.39 0.33 0.40 0.30 0.31 0.29 0.32 0.33 0.29 0.26 0.29 0.32 0.35 0.39 0.43 0.45 0.48 0.49 0.52 0.53
0.89 0.86 0.86 0.87 0.89 0.96 0.96 0.89 0.90 0.96 0.80 0.63 0.61 0.72 0.78 0.84 0.79 0.74 0.72 0.66 0.60 0.56 0.47 0.42 0.38 0.41 0.39 0.39 0.36 0.30 0.34 0.30 0.26 0.27 0.34 0.35 0.38 0.47 0.52 0.51 0.52 0.54 0.53 0.53
0.93 0.90 0.87 0.86 0.88 0.91 0.84 0.66 0.82 0.94 0.94 0.77 0.58 0.78 0.77 0.83 0.80 0.71 0.67 0.67 0.63 0.59 0.52 0.45 0.49 0.53 0.46 0.33 0.27 0.36 0.40 0.43 0.42 0.37 0.47 0.49 0.52 0.55 0.57 0.55 0.56 0.56 0.55 0.55
0.94 0.89 0.85 0.85 0.86 0.82 0.67 0.60 0.77 0.97 0.96 0.72 0.64 0.65 0.79 0.81 0.75 0.73 0.72 0.73 0.67 0.63 0.57 0.52 0.50 0.46 0.45 0.38 0.29 0.39 0.44 0.47 0.49 0.53 0.54 0.50 0.54 0.51 0.56 0.56 0.55 0.57 0.59 0.62
0.97 0.94 0.94 0.91 0.87 0.85 0.71 0.80 0.86 0.85 0.65 0.61 0.52 0.57 0.67 0.83 0.69 0.64 0.77 0.68 0.69 0.62 0.53 0.51 0.44 0.47 0.45 0.33 0.40 0.44 0.48 0.51 0.52 0.53 0.56 0.54 0.54 0.54 0.54 0.58 0.60 0.59 0.60 0.59
0.94 0.91 0.89 0.87 0.81 0.70 0.72 0.82 0.79 0.74 0.57 0.41 0.40 0.38 0.38 0.70 0.60 0.62 0.62 0.60 0.42 0.50 0.41 0.41 0.44 0.36 0.30 0.37 0.41 0.45 0.49 0.50 0.50 0.53 0.55 0.55 0.54 0.55 0.57 0.58 0.59 0.55 0.52 0.52
0.83 0.76 0.63 0.58 0.72 0.83 0.78 0.67 0.56 0.53 0.53 0.50 0.40 0.48 0.36 0.49 0.48 0.42 0.41 0.43 0.36 0.30 0.37 0.47 0.38 0.36 0.43 0.46 0.50 0.52 0.55 0.57 0.57 0.52 0.51 0.55 0.54 0.54 0.54 0.51 0.51 0.49 0.48 0.44
0.69 0.60 0.59 0.76 0.82 0.66 0.56 0.46 0.43 0.45 0.38 0.44 0.42 0.41 0.34 0.48 0.37 0.36 0.43 0.37 0.38 0.29 0.35 0.36 0.34 0.34 0.42 0.50 0.52 0.56 0.58 0.59 0.60 0.60 0.60 0.59 0.55 0.51 0.48 0.45 0.43 0.39 0.35 0.31
0.74 0.74 0.78 0.70 0.58 0.52 0.43 0.40 0.43 0.39 0.34 0.42 0.38 0.40 0.45 0.47 0.54 0.43 0.45 0.37 0.39 0.30 0.45 0.37 0.31 0.40 0.47 0.49 0.50 0.55 0.59 0.60 0.58 0.57 0.55 0.53 0.48 0.44 0.40 0.36 0.33 0.31 0.30 0.29
0.77 0.66 0.58 0.57 0.54 0.41 0.37 0.31 0.33 0.34 0.43 0.46 0.48 0.45 0.51 0.53 0.54 0.46 0.44 0.36 0.35 0.45 0.35 0.32 0.35 0.42 0.48 0.52 0.55 0.54 0.55 0.55 0.53 0.48 0.45 0.43 0.40 0.37 0.35 0.32 0.31 0.30 0.29 0.29
0.63 0.57 0.47 0.47 0.44 0.45 0.45 0.43 0.45 0.51 0.53 0.53 0.54 0.50 0.49 0.53 0.46 0.46 0.37 0.41 0.42 0.31 0.27 0.28 0.39 0.48 0.52 0.54 0.53 0.49 0.47 0.46 0.45 0.43 0.40 0.37 0.36 0.34 0.34 0.32 0.31 0.28 0.25 0.24
0.60 0.59 0.46 0.47 0.50 0.54 0.55 0.57 0.55 0.57 0.60 0.56 0.52 0.50 0.50 0.45 0.42 0.45 0.42 0.37 0.32 0.34 0.33 0.42 0.49 0.53 0.54 0.51 0.48 0.45 0.44 0.42 0.40 0.38 0.37 0.36 0.34 0.33 0.31 0.29 0.25 0.22 0.20 0.18
0.59 0.53 0.46 0.50 0.48 0.47 0.50 0.51 0.50 0.57 0.56 0.57 0.53 0.45 0.42 0.41 0.44 0.40 0.38 0.36 0.33 0.38 0.44 0.50 0.53 0.52 0.51 0.47 0.45 0.44 0.41 0.39 0.39 0.40 0.37 0.34 0.32 0.28 0.24 0.23 0.20 0.18 0.18 0.17
0.51 0.47 0.54 0.53 0.51 0.49 0.52 0.54 0.54 0.61 0.55 0.46 0.49 0.41 0.40 0.47 0.40 0.38 0.43 0.38 0.42 0.47 0.49 0.52 0.52 0.49 0.46 0.45 0.43 0.41 0.42 0.42 0.39 0.36 0.34 0.32 0.28 0.23 0.18 0.16 0.16 0.17 0.17 0.16

GFSNW_prec_pwat_054.txt.gz
Precipitable_Water
0.63 0.61 0.56 0.54 0.61 0.78 0.95 0.69 0.42 0.68 0.81 0.49 0.42 0.35 0.44 0.50 0.50 0.46 0.46 0.40 0.33 0.31 0.32 0.31 0.28 0.26 0.28 0.35 0.36 0.29 0.29 0.32 0.26 0.31 0.37 0.35 0.33 0.34 0.33 0.26 0.21 0.26 0.24 0.20
0.65 0.60 0.57 0.53 0.60 0.84 0.86 0.57 0.58 0.95 0.76 0.34 0.32 0.40 0.44 0.49 0.47 0.46 0.46 0.40 0.37 0.35 0.33 0.31 0.31 0.33 0.43 0.44 0.36 0.32 0.36 0.29 0.23 0.24 0.35 0.36 0.27 0.22 0.26 0.29 0.33 0.24 0.23 0.22
0.66 0.61 0.57 0.54 0.63 0.85 0.86 0.62 0.47 0.73 0.74 0.49 0.35 0.35 0.40 0.42 0.51 0.44 0.46 0.43 0.38 0.34 0.34 0.39 0.34 0.34 0.43 0.43 0.40 0.39 0.39 0.33 0.25 0.20 0.23 0.37 0.35 0.36 0.30 0.30 0.25 0.23 0.22 0.24
0.65 0.61 0.56 0.53 0.64 0.87 0.87 0.64 0.46 0.58 0.50 0.48 0.40 0.44 0.41 0.40 0.43 0.45 0.48 0.43 0.40 0.32 0.30 0.32 0.33 0.37 0.42 0.39 0.35 0.32 0.30 0.21 0.22 0.24 0.29 0.35 0.34 0.36 0.34 0.29 0.30 0.25 0.26 0.25
0.65 0.59 0.55 0.52 0.65 0.90 0.80 0.57 0.46 0.59 0.55 0.57 0.44 0.42 0.42 0.44 0.48 0.44 0.43 0.46 0.43 0.36 0.35 0.32 0.33 0.40 0.44 0.34 0.37 0.32 0.35 0.25 0.31 0.30 0.35 0.34 0.30 0.32 0.32 0.29 0.28 0.27 0.27 0.26
0.64 0.57 0.54 0.51 0.69 0.88 0.71 0.69 0.66 0.61 0.50 0.49 0.39 0.38 0.49 0.48 0.54 0.44 0.45 0.51 0.46 0.38 0.43 0.53 0.55 0.53 0.54 0.48 0.45 0.37 0.38 0.33 0.33 0.25 0.32 0.29 0.22 0.21 0.22 0.22 0.25 0.27 0.22 0.27
0.58 0.55 0.54 0.53 0.76 0.81 0.71 0.75 0.76 0.62 0.46 0.46 0.39 0.46 0.53 0.51 0.52 0.43 0.57 0.58 0.47 0.51 0.68 0.66 0.58 0.53 0.51 0.50 0.50 0.53 0.47 0.43 0.40 0.29 0.28 0.18 0.22 0.28 0.25 0.23 0.24 0.25 0.26 0.28
0.54 0.55 0.54 0.57 0.73 0.83 0.80 0.83 0.82 0.68 0.50 0.50 0.42 0.47 0.53 0.59 0.59 0.45 0.60 0.61 0.70 0.71 0.59 0.50 0.41 0.35 0.33 0.36 0.40 0.44 0.48 0.43 0.32 0.25 0.23 0.24 0.25 0.27 0.24 0.22 0.21 0.27 0.26 0.27
0.54 0.54 0.53 0.56 0.79 0.87 0.87 0.88 0.97 0.90 0.61 0.51 0.47 0.47 0.57 0.53 0.53 0.56 0.78 0.70 0.78 0.73 0.57 0.43 0.29 0.26 0.26 0.27 0.32 0.37 0.37 0.42 0.31 0.25 0.21 0.16 0.27 0.32 0.33 0.28 0.20 0.31 0.30 0.31
0.52 0.53 0.53 0.60 0.72 0.80 0.85 0.89 0.99 0.87 0.69 0.67 0.58 0.44 0.47 0.62 0.59 0.58 0.66 0.62 0.61 0.70 0.47 0.35 0.28 0.23 0.30 0.27 0.31 0.29 0.29 0.31 0.26 0.27 0.24 0.27 0.37 0.38 0.37 0.21 0.26 0.37 0.34 0.30
0.51 0.53 0.55 0.66 0.73 0.83 0.86 0.85 1.05 0.96 0.82 0.73 0.70 0.61 0.54 0.58 0.64 0.62 0.61 0.59 0.59 0.52 0.35 0.32 0.31 0.30 0.30 0.27 0.34 0.32 0.27 0.26 0.26 0.32 0.28 0.22 0.40 0.35 0.26 0.39 0.41 0.37 0.34 0.39
0.53 0.56 0.58 0.70 0.81 0.81 0.89 0.81 1.06 1.09 0.95 0.82 0.95 0.86 0.81 0.78 0.85 0.71 0.65 0.55 0.50 0.48 0.41 0.42 0.43 0.34 0.37 0.30 0.21 0.36 0.29 0.34 0.32 0.32 0.29 0.41 0.36 0.38 0.43 0.41 0.37 0.40 0.41 0.44
0.54 0.62 0.64 0.74 0.85 0.87 0.93 0.91 1.03 1.13 0.87 0.82 0.78 0.70 0.82 0.89 0.92 1.05 0.62 0.68 0.66 0.57 0.64 0.52 0.49 0.35 0.42 0.26 0.28 0.34 0.41 0.43 0.36 0.35 0.33 0.39 0.39 0.42 0.45 0.45 0.42 0.45 0.47 0.46
0.60 0.68 0.76 0.81 0.85 0.90 0.98 0.92 1.03 1.05 0.85 0.62 0.68 0.91 0.77 0.86 0.90 0.96 0.92 0.77 0.78 0.75 0.71 0.53 0.43 0.38 0.49 0.36 0.37 0.37 0.41 0.42 0.34 0.32 0.35 0.38 0.46 0.48 0.49 0.49 0.49 0.48 0.51 0.52
0.71 0.78 0.83 0.85 0.90 0.97 1.04 1.01 1.01 1.15 0.89 0.60 0.63 0.73 0.78 0.81 0.78 0.78 0.83 0.77 0.71 0.66 0.55 0.46 0.46 0.53 0.48 0.47 0.42 0.35 0.42 0.37 0.32 0.31 0.43 0.43 0.47 0.52 0.53 0.49 0.49 0.51 0.50 0.48
0.85 0.88 0.92 0.95 0.97 1.02 0.96 0.82 1.03 1.12 1.10 0.69 0.55 0.78 0.70 0.75 0.76 0.71 0.71 0.69 0.68 0.71 0.61 0.56 0.57 0.62 0.55 0.39 0.34 0.44 0.47 0.47 0.49 0.46 0.50 0.50 0.52 0.51 0.53 0.49 0.50 0.51 0.50 0.51
0.91 0.93 0.95 0.97 1.00 1.04 0.86 0.77 0.91 1.00 1.04 0.69 0.56 0.56 0.74 0.79 0.76 0.73 0.73 0.74 0.70 0.69 0.62 0.57 0.57 0.55 0.59 0.43 0.36 0.47 0.49 0.51 0.49 0.50 0.51 0.45 0.50 0.44 0.50 0.51 0.51 0.53 0.55 0.57
0.92 0.93 0.95 1.01 1.05 1.06 0.91 1.00 1.01 0.98 0.81 0.74 0.56 0.56 0.61 0.80 0.66 0.60 0.73 0.62 0.63 0.62 0.56 0.57 0.53 0.58 0.56 0.41 0.50 0.52 0.52 0.51 0.48 0.48 0.52 0.51 0.53 0.54 0.54 0.56 0.56 0.52 0.52 0.54
0.97 1.00 1.02 1.02 0.97 0.86 0.87 0.96 0.99 0.97 0.77 0.58 0.56 0.52 0.49 0.77 0.66 0.64 0.66 0.67 0.47 0.61 0.50 0.54 0.59 0.51 0.42 0.50 0.50 0.50 0.51 0.49 0.46 0.48 0.50 0.52 0.52 0.53 0.53 0.52 0.52 0.51 0.50 0.49
1.03 0.99 0.84 0.73 0.88 1.01 0.99 0.87 0.77 0.71 0.67 0.60 0.52 0.67 0.60 0.68 0.62 0.57 0.59 0.60 0.52 0.45 0.53 0.64 0.54 0.48 0.54 0.56 0.55 0.55 0.55 0.56 0.53 0.48 0.47 0.51 0.51 0.51 0.50 0.50 0.52 0.50 0.48 0.46
0.91 0.77 0.73 0.89 0.99 0.88 0.74 0.56 0.54 0.56 0.46 0.54 0.58 0.67 0.63 0.74 0.55 0.53 0.63 0.55 0.56 0.42 0.47 0.48 0.43 0.42 0.48 0.54 0.53 0.56 0.57 0.57 0.57 0.57 0.57 0.56 0.53 0.50 0.48 0.47 0.47 0.45 0.41 0.37
0.84 0.80 0.90 0.87 0.75 0.63 0.53 0.49 0.50 0.48 0.45 0.53 0.53 0.60 0.65 0.68 0.73 0.62 0.64 0.50 0.52 0.37 0.51 0.42 0.34 0.41 0.48 0.50 0.52 0.55 0.57 0.57 0.57 0.57 0.53 0.52 0.49 0.48 0.47 0.45 0.42 0.39 0.37 0.33
0.81 0.70 0.63 0.60 0.56 0.45 0.39 0.37 0.43 0.42 0.49 0.53 0.53 0.50 0.57 0.62 0.61 0.53 0.52 0.43 0.39 0.49 0.36 0.32 0.37 0.45 0.51 0.54 0.55 0.54 0.55 0.54 0.52 0.49 0.50 0.51 0.50 0.47 0.42 0.38 0.38 0.35 0.32 0.28
0.62 0.56 0.46 0.48 0.44 0.46 0.46 0.47 0.48 0.52 0.52 0.51 0.52 0.49 0.48 0.50 0.43 0.43 0.34 0.39 0.41 0.32 0.29 0.31 0.43 0.50 0.52 0.52 0.52 0.51 0.49 0.49 0.49 0.49 0.46 0.43 0.41 0.38 0.37 0.35 0.33 0.28 0.24 0.23
0.58 0.58 0.45 0.47 0.53 0.54 0.55 0.57 0.54 0.56 0.58 0.53 0.49 0.48 0.47 0.42 0.39 0.42 0.39 0.35 0.32 0.35 0.34 0.43 0.49 0.51 0.51 0.52 0.51 0.50 0.50 0.49 0.47 0.46 0.43 0.41 0.41 0.37 0.33 0.30 0.28 0.26 0.23 0.21
0.59 0.54 0.48 0.53 0.51 0.50 0.53 0.54 0.52 0.59 0.58 0.58 0.53 0.44 0.40 0.39 0.42 0.38 0.37 0.35 0.33 0.40 0.46 0.51 0.53 0.52 0.52 0.50 0.52 0.50 0.49 0.48 0.46 0.43 0.42 0.39 0.35 0.32 0.30 0.28 0.25 0.22 0.19 0.17
0.55 0.51 0.56 0.55 0.53 0.52 0.54 0.56 0.56 0.64 0.56 0.46 0.49 0.41 0.40 0.48 0.41 0.39 0.44 0.40 0.44 0.48 0.49 0.53 0.55 0.55 0.53 0.52 0.51 0.50 0.50 0.47 0.44 0.41 0.38 0.35 0.32 0.30 0.27 0.23 0.21 0.19 0.18 0.18

GFSNW_prec_pwat_057.txt.gz
Precipitable_Water
0.55 0.52 0.55 0.63 0.55 0.55 0.69 0.68 0.46 0.67 0.88 0.44 0.47 0.40 0.40 0.49 0.38 0.54 0.51 0.44 0.38 0.31 0.27 0.28 0.29 0.29 0.32 0.35 0.42 0.41 0.43 0.37 0.32 0.43 0.43 0.44 0.33 0.28 0.34 0.25 0.19 0.23 0.24 0.21
0.59 0.56 0.60 0.61 0.58 0.55 0.64 0.57 0.60 0.82 0.70 0.36 0.36 0.43 0.40 0.43 0.38 0.49 0.49 0.40 0.41 0.38 0.32 0.30 0.37 0.34 0.42 0.38 0.37 0.36 0.39 0.31 0.22 0.31 0.38 0.40 0.33 0.34 0.28 0.31 0.31 0.24 0.21 0.22
0.57 0.57 0.65 0.64 0.59 0.59 0.71 0.54 0.49 0.62 0.64 0.44 0.41 0.38 0.34 0.31 0.39 0.52 0.54 0.47 0.44 0.38 0.33 0.35 0.38 0.38 0.42 0.44 0.42 0.44 0.39 0.30 0.24 0.17 0.21 0.25 0.31 0.33 0.35 0.29 0.22 0.22 0.24 0.26
0.55 0.58 0.64 0.66 0.63 0.61 0.68 0.57 0.45 0.57 0.45 0.43 0.41 0.40 0.35 0.32 0.29 0.53 0.54 0.48 0.43 0.34 0.29 0.31 0.37 0.46 0.42 0.46 0.44 0.40 0.35 0.23 0.28 0.26 0.25 0.28 0.31 0.33 0.37 0.36 0.32 0.28 0.28 0.29
0.50 0.57 0.62 0.69 0.65 0.63 0.60 0.50 0.44 0.57 0.54 0.56 0.45 0.40 0.34 0.32 0.31 0.48 0.45 0.44 0.42 0.39 0.29 0.32 0.33 0.41 0.43 0.38 0.42 0.33 0.32 0.20 0.21 0.20 0.25 0.29 0.27 0.33 0.31 0.35 0.33 0.31 0.29 0.28
0.47 0.55 0.63 0.70 0.67 0.61 0.54 0.65 0.62 0.58 0.52 0.56 0.51 0.42 0.40 0.33 0.34 0.47 0.51 0.45 0.44 0.43 0.36 0.40 0.46 0.48 0.47 0.46 0.41 0.30 0.29 0.24 0.21 0.19 0.26 0.26 0.22 0.24 0.26 0.23 0.27 0.30 0.22 0.27
0.47 0.57 0.62 0.71 0.65 0.57 0.58 0.63 0.69 0.58 0.43 0.51 0.48 0.47 0.42 0.37 0.39 0.50 0.54 0.48 0.45 0.56 0.62 0.56 0.57 0.51 0.53 0.56 0.54 0.48 0.35 0.34 0.35 0.27 0.30 0.17 0.24 0.31 0.28 0.25 0.27 0.28 0.27 0.30
0.50 0.59 0.66 0.69 0.61 0.61 0.62 0.79 0.73 0.63 0.53 0.50 0.50 0.49 0.42 0.42 0.47 0.55 0.60 0.57 0.56 0.68 0.59 0.46 0.46 0.44 0.46 0.50 0.56 0.46 0.47 0.46 0.36 0.28 0.25 0.26 0.26 0.28 0.26 0.23 0.24 0.28 0.27 0.31
0.56 0.68 0.68 0.68 0.58 0.64 0.66 0.74 0.81 0.77 0.55 0.49 0.52 0.39 0.43 0.41 0.50 0.58 0.63 0.73 0.71 0.77 0.57 0.46 0.39 0.33 0.35 0.32 0.34 0.39 0.42 0.45 0.35 0.30 0.20 0.15 0.26 0.31 0.33 0.30 0.21 0.33 0.32 0.32
0.67 0.68 0.68 0.61 0.58 0.63 0.68 0.72 0.86 0.73 0.67 0.67 0.64 0.44 0.36 0.50 0.55 0.55 0.65 0.67 0.67 0.83 0.53 0.41 0.39 0.35 0.38 0.25 0.24 0.27 0.28 0.32 0.28 0.26 0.20 0.22 0.34 0.36 0.38 0.24 0.26 0.38 0.37 0.37
0.67 0.66 0.62 0.57 0.57 0.67 0.70 0.73 0.89 0.80 0.70 0.72 0.74 0.62 0.48 0.47 0.57 0.54 0.64 0.56 0.60 0.67 0.52 0.47 0.40 0.32 0.32 0.29 0.37 0.34 0.27 0.23 0.23 0.30 0.24 0.18 0.41 0.36 0.29 0.38 0.42 0.40 0.41 0.41
0.61 0.57 0.57 0.55 0.56 0.71 0.73 0.70 0.88 0.94 0.80 0.80 0.94 0.84 0.73 0.69 0.72 0.71 0.68 0.53 0.53 0.66 0.53 0.51 0.47 0.37 0.34 0.27 0.21 0.42 0.28 0.29 0.25 0.28 0.26 0.40 0.41 0.39 0.43 0.43 0.40 0.42 0.40 0.42
0.54 0.53 0.53 0.52 0.53 0.66 0.75 0.78 0.87 0.82 0.76 0.83 0.84 0.77 0.78 0.89 0.88 0.88 0.60 0.69 0.70 0.67 0.66 0.54 0.46 0.33 0.41 0.27 0.28 0.29 0.38 0.45 0.37 0.38 0.41 0.41 0.42 0.45 0.46 0.47 0.44 0.46 0.47 0.44
0.51 0.51 0.50 0.51 0.59 0.68 0.77 0.80 0.84 0.85 0.78 0.60 0.68 1.03 0.81 0.95 0.98 0.89 0.86 0.81 0.95 0.78 0.65 0.48 0.43 0.37 0.48 0.35 0.35 0.31 0.40 0.42 0.39 0.39 0.42 0.43 0.46 0.48 0.50 0.50 0.49 0.44 0.44 0.45
0.51 0.52 0.52 0.53 0.63 0.72 0.89 0.89 0.91 1.02 0.84 0.68 0.76 0.89 0.93 0.89 0.93 0.85 0.83 0.79 0.98 0.69 0.55 0.48 0.45 0.52 0.48 0.47 0.44 0.39 0.45 0.39 0.33 0.30 0.43 0.42 0.45 0.52 0.54 0.48 0.46 0.46 0.45 0.46
0.52 0.54 0.57 0.65 0.73 0.84 0.87 0.72 0.90 0.97 0.96 0.81 0.63 0.91 0.83 0.87 0.87 0.86 0.82 0.73 0.90 0.80 0.65 0.59 0.61 0.66 0.52 0.41 0.38 0.48 0.51 0.51 0.48 0.42 0.51 0.50 0.52 0.54 0.54 0.49 0.46 0.47 0.49 0.50
0.57 0.57 0.63 0.75 0.84 0.82 0.74 0.70 0.98 1.08 1.04 0.77 0.59 0.60 0.80 0.85 0.84 0.80 0.79 0.83 0.78 0.73 0.68 0.63 0.59 0.59 0.58 0.48 0.40 0.52 0.56 0.55 0.55 0.57 0.54 0.47 0.49 0.43 0.48 0.49 0.51 0.53 0.54 0.55
0.62 0.69 0.75 0.81 0.91 0.94 0.79 0.98 1.06 1.10 0.88 0.83 0.57 0.54 0.61 0.78 0.62 0.59 0.74 0.64 0.66 0.64 0.60 0.61 0.55 0.62 0.60 0.46 0.56 0.59 0.59 0.57 0.54 0.54 0.54 0.49 0.50 0.52 0.52 0.55 0.53 0.51 0.50 0.51
0.76 0.82 0.88 0.85 0.81 0.77 0.83 1.07 1.01 0.92 0.81 0.57 0.56 0.49 0.46 0.74 0.63 0.65 0.64 0.66 0.51 0.64 0.54 0.54 0.57 0.51 0.45 0.53 0.57 0.58 0.58 0.53 0.51 0.53 0.52 0.52 0.52 0.53 0.53 0.53 0.52 0.48 0.49 0.48
0.85 0.83 0.76 0.66 0.84 1.03 1.02 0.87 0.71 0.67 0.63 0.62 0.52 0.63 0.52 0.65 0.61 0.55 0.55 0.57 0.50 0.43 0.52 0.61 0.49 0.46 0.57 0.60 0.63 0.66 0.62 0.55 0.53 0.46 0.45 0.50 0.51 0.52 0.52 0.51 0.51 0.49 0.47 0.45
0.83 0.73 0.68 0.88 1.02 0.85 0.73 0.59 0.56 0.57 0.49 0.55 0.58 0.60 0.53 0.71 0.56 0.55 0.60 0.52 0.52 0.40 0.46 0.47 0.43 0.41 0.52 0.64 0.66 0.68 0.65 0.59 0.55 0.55 0.56 0.58 0.55 0.51 0.50 0.50 0.49 0.47 0.41 0.38
0.87 0.82 0.90 0.87 0.75 0.66 0.54 0.50 0.53 0.50 0.43 0.51 0.51 0.56 0.61 0.65 0.72 0.61 0.59 0.48 0.50 0.38 0.56 0.48 0.40 0.50 0.61 0.62 0.62 0.60 0.59 0.58 0.58 0.59 0.58 0.55 0.52 0.52 0.51 0.48 0.44 0.39 0.36 0.34
0.84 0.72 0.65 0.64 0.61 0.47 0.43 0.38 0.41 0.40 0.48 0.51 0.54 0.55 0.64 0.69 0.68 0.61 0.57 0.47 0.44 0.55 0.43 0.40 0.46 0.55 0.57 0.55 0.54 0.55 0.58 0.59 0.57 0.54 0.54 0.52 0.52 0.52 0.46 0.42 0.40 0.36 0.32 0.30
0.64 0.58 0.48 0.49 0.46 0.47 0.47 0.47 0.46 0.50 0.53 0.53 0.58 0.57 0.56 0.60 0.53 0.55 0.45 0.50 0.51 0.39 0.36 0.37 0.45 0.49 0.51 0.54 0.57 0.55 0.52 0.52 0.52 0.52 0.52 0.51 0.46 0.43 0.42 0.40 0.37 0.33 0.29 0.26
0.57 0.56 0.44 0.46 0.52 0.53 0.53 0.56 0.53 0.56 0.58 0.56 0.54 0.53 0.52 0.49 0.45 0.46 0.42 0.37 0.33 0.36 0.34 0.40 0.48 0.52 0.54 0.54 0.53 0.51 0.50 0.50 0.50 0.49 0.45 0.42 0.41 0.39 0.37 0.35 0.32 0.29 0.26 0.23
0.58 0.52 0.47 0.51 0.48 0.48 0.51 0.54 0.53 0.61 0.60 0.59 0.54 0.46 0.41 0.40 0.41 0.36 0.34 0.32 0.30 0.36 0.45 0.53 0.56 0.55 0.54 0.52 0.52 0.52 0.53 0.51 0.47 0.46 0.45 0.43 0.40 0.36 0.33 0.32 0.29 0.27 0.24 0.22
0.53 0.49 0.56 0.55 0.53 0.50 0.53 0.56 0.56 0.65 0.58 0.49 0.48 0.38 0.36 0.44 0.37 0.35 0.40 0.37 0.43 0.50 0.54 0.58 0.57 0.54 0.53 0.53 0.53 0.53 0.53 0.48 0.46 0.44 0.43 0.40 0.38 0.34 0.31 0.28 0.27 0.26 0.24 0.22

GFSNW_prec_pwat_060.txt.gz
Precipitable_Water
0.46 0.46 0.44 0.53 0.54 0.63 0.54 0.45 0.34 0.67 0.84 0.55 0.45 0.37 0.44 0.49 0.34 0.51 0.53 0.51 0.46 0.34 0.29 0.26 0.26 0.26 0.29 0.34 0.35 0.32 0.39 0.34 0.28 0.32 0.43 0.47 0.42 0.32 0.33 0.26 0.26 0.28 0.23 0.20
0.46 0.44 0.42 0.55 0.56 0.66 0.49 0.38 0.47 0.77 0.67 0.39 0.37 0.41 0.43 0.42 0.36 0.43 0.45 0.46 0.50 0.43 0.33 0.27 0.28 0.30 0.39 0.37 0.37 0.34 0.40 0.39 0.31 0.32 0.37 0.42 0.36 0.36 0.35 0.36 0.33 0.24 0.20 0.21
0.44 0.44 0.49 0.59 0.61 0.69 0.52 0.45 0.36 0.56 0.59 0.50 0.41 0.36 0.33 0.34 0.39 0.40 0.48 0.50 0.54 0.44 0.35 0.36 0.30 0.31 0.40 0.43 0.38 0.44 0.47 0.37 0.31 0.25 0.24 0.33 0.30 0.34 0.36 0.35 0.24 0.23 0.24 0.24
0.45 0.45 0.55 0.59 0.62 0.71 0.54 0.52 0.40 0.40 0.32 0.34 0.41 0.42 0.38 0.35 0.27 0.38 0.43 0.45 0.49 0.43 0.34 0.33 0.33 0.37 0.41 0.47 0.43 0.42 0.41 0.30 0.33 0.32 0.29 0.30 0.30 0.28 0.32 0.29 0.33 0.27 0.28 0.28
0.46 0.48 0.56 0.59 0.63 0.73 0.51 0.45 0.43 0.48 0.40 0.39 0.39 0.39 0.35 0.33 0.31 0.31 0.30 0.40 0.50 0.46 0.38 0.35 0.34 0.37 0.40 0.39 0.43 0.36 0.40 0.29 0.31 0.26 0.30 0.28 0.24 0.27 0.30 0.30 0.33 0.32 0.33 0.30
0.47 0.49 0.58 0.62 0.65 0.73 0.51 0.55 0.60 0.53 0.35 0.39 0.38 0.35 0.34 0.32 0.37 0.32 0.35 0.50 0.50 0.44 0.43 0.45 0.43 0.46 0.45 0.46 0.41 0.36 0.35 0.32 0.26 0.18 0.24 0.22 0.17 0.19 0.23 0.27 0.30 0.30 0.23 0.32
0.49 0.51 0.58 0.60 0.66 0.71 0.55 0.53 0.60 0.45 0.34 0.40 0.39 0.41 0.40 0.35 0.33 0.30 0.35 0.43 0.51 0.51 0.60 0.58 0.53 0.51 0.49 0.50 0.46 0.42 0.33 0.31 0.27 0.20 0.21 0.12 0.21 0.28 0.27 0.26 0.27 0.29 0.29 0.30
0.52 0.52 0.54 0.59 0.63 0.69 0.57 0.62 0.62 0.56 0.35 0.41 0.45 0.48 0.46 0.45 0.36 0.36 0.32 0.52 0.62 0.65 0.61 0.46 0.40 0.39 0.43 0.47 0.48 0.46 0.47 0.38 0.27 0.24 0.24 0.28 0.28 0.29 0.26 0.25 0.26 0.33 0.30 0.32
0.52 0.51 0.53 0.58 0.62 0.68 0.61 0.66 0.75 0.65 0.49 0.37 0.48 0.50 0.51 0.42 0.38 0.37 0.43 0.64 0.80 0.68 0.56 0.50 0.36 0.31 0.35 0.35 0.38 0.54 0.51 0.51 0.32 0.28 0.26 0.21 0.24 0.28 0.33 0.33 0.23 0.35 0.35 0.34
0.50 0.49 0.49 0.54 0.63 0.67 0.61 0.63 0.75 0.67 0.48 0.65 0.51 0.44 0.45 0.51 0.46 0.39 0.45 0.57 0.62 0.70 0.50 0.45 0.39 0.36 0.41 0.33 0.33 0.35 0.37 0.37 0.28 0.26 0.23 0.26 0.31 0.34 0.36 0.21 0.23 0.38 0.40 0.40
0.49 0.47 0.51 0.56 0.62 0.68 0.62 0.61 0.76 0.63 0.56 0.66 0.70 0.63 0.49 0.45 0.47 0.38 0.49 0.56 0.61 0.59 0.54 0.49 0.49 0.41 0.39 0.37 0.39 0.35 0.28 0.24 0.25 0.28 0.22 0.20 0.36 0.33 0.26 0.34 0.44 0.45 0.43 0.42
0.45 0.47 0.54 0.64 0.71 0.67 0.63 0.56 0.74 0.81 0.68 0.69 0.86 0.88 0.80 0.59 0.46 0.49 0.61 0.57 0.59 0.64 0.56 0.55 0.59 0.48 0.46 0.41 0.31 0.46 0.30 0.28 0.21 0.25 0.23 0.36 0.41 0.37 0.43 0.44 0.40 0.42 0.42 0.44
0.52 0.55 0.66 0.70 0.67 0.63 0.59 0.59 0.68 0.68 0.62 0.63 0.72 0.76 0.86 0.83 0.67 0.68 0.60 0.70 0.73 0.69 0.74 0.65 0.60 0.49 0.50 0.37 0.35 0.36 0.39 0.41 0.29 0.29 0.37 0.38 0.42 0.46 0.47 0.46 0.44 0.47 0.48 0.48
0.64 0.66 0.68 0.67 0.61 0.59 0.60 0.60 0.78 0.72 0.74 0.58 0.67 1.00 0.83 0.91 0.83 0.77 0.73 0.79 0.87 0.84 0.75 0.57 0.52 0.49 0.57 0.42 0.40 0.34 0.36 0.40 0.37 0.37 0.43 0.45 0.47 0.47 0.48 0.46 0.47 0.47 0.47 0.45
0.67 0.65 0.64 0.59 0.56 0.60 0.64 0.75 0.74 0.83 0.64 0.54 0.67 0.88 0.91 0.93 0.84 0.78 0.86 0.81 0.77 0.78 0.61 0.56 0.52 0.59 0.53 0.50 0.44 0.38 0.44 0.37 0.34 0.32 0.43 0.42 0.45 0.51 0.51 0.47 0.48 0.49 0.46 0.44
0.57 0.56 0.54 0.55 0.57 0.61 0.61 0.58 0.78 0.87 0.81 0.65 0.58 0.84 0.83 0.91 0.87 0.78 0.78 0.92 0.85 0.77 0.66 0.62 0.66 0.73 0.53 0.41 0.38 0.48 0.51 0.53 0.52 0.47 0.53 0.51 0.52 0.52 0.54 0.51 0.51 0.51 0.48 0.47
0.53 0.54 0.53 0.56 0.57 0.57 0.52 0.58 0.80 0.83 0.78 0.60 0.56 0.59 0.80 0.93 0.85 0.82 0.84 0.83 0.76 0.79 0.74 0.64 0.70 0.67 0.58 0.46 0.37 0.49 0.56 0.57 0.57 0.58 0.55 0.50 0.52 0.49 0.56 0.56 0.53 0.50 0.49 0.51
0.52 0.53 0.55 0.57 0.68 0.73 0.69 0.91 1.00 0.94 0.78 0.76 0.60 0.59 0.73 0.91 0.74 0.71 0.88 0.75 0.74 0.70 0.66 0.66 0.67 0.69 0.61 0.44 0.53 0.58 0.62 0.63 0.62 0.61 0.61 0.57 0.58 0.58 0.55 0.53 0.51 0.49 0.50 0.51
0.55 0.58 0.63 0.66 0.62 0.64 0.68 0.97 1.02 1.01 0.84 0.63 0.61 0.56 0.52 0.82 0.72 0.74 0.72 0.71 0.57 0.71 0.62 0.66 0.66 0.56 0.47 0.54 0.56 0.59 0.62 0.61 0.62 0.65 0.63 0.59 0.54 0.52 0.51 0.51 0.51 0.50 0.49 0.49
0.62 0.61 0.54 0.50 0.69 0.94 0.86 0.79 0.73 0.73 0.70 0.71 0.59 0.65 0.53 0.68 0.65 0.61 0.60 0.62 0.53 0.45 0.51 0.61 0.50 0.46 0.57 0.61 0.64 0.65 0.64 0.65 0.65 0.60 0.57 0.57 0.52 0.51 0.50 0.51 0.53 0.51 0.49 0.48
0.60 0.56 0.59 0.77 0.91 0.80 0.69 0.57 0.58 0.60 0.52 0.59 0.60 0.59 0.50 0.66 0.49 0.49 0.56 0.50 0.49 0.38 0.44 0.46 0.42 0.39 0.50 0.62 0.64 0.66 0.67 0.68 0.67 0.68 0.65 0.60 0.56 0.53 0.53 0.53 0.53 0.51 0.49 0.44
0.69 0.73 0.81 0.82 0.70 0.63 0.54 0.52 0.55 0.50 0.43 0.54 0.52 0.55 0.58 0.60 0.64 0.53 0.55 0.47 0.49 0.35 0.53 0.43 0.36 0.45 0.56 0.60 0.62 0.64 0.66 0.68 0.69 0.67 0.59 0.56 0.56 0.56 0.55 0.52 0.49 0.48 0.43 0.38
0.84 0.71 0.65 0.62 0.60 0.47 0.44 0.39 0.41 0.41 0.48 0.53 0.54 0.50 0.57 0.59 0.61 0.55 0.52 0.44 0.42 0.53 0.43 0.39 0.43 0.54 0.60 0.64 0.66 0.68 0.71 0.68 0.63 0.58 0.58 0.58 0.56 0.55 0.52 0.49 0.47 0.41 0.36 0.33
0.65 0.59 0.48 0.50 0.45 0.47 0.49 0.47 0.45 0.50 0.50 0.52 0.54 0.51 0.52 0.57 0.53 0.54 0.46 0.50 0.51 0.40 0.35 0.36 0.46 0.54 0.61 0.66 0.65 0.61 0.59 0.59 0.58 0.58 0.56 0.54 0.54 0.50 0.47 0.41 0.38 0.35 0.33 0.31
0.53 0.54 0.42 0.45 0.50 0.53 0.54 0.55 0.52 0.53 0.56 0.54 0.52 0.52 0.54 0.52 0.50 0.52 0.48 0.43 0.38 0.38 0.37 0.46 0.53 0.57 0.58 0.56 0.56 0.57 0.58 0.57 0.55 0.54 0.53 0.52 0.49 0.44 0.41 0.40 0.37 0.34 0.32 0.30
0.54 0.51 0.47 0.50 0.48 0.48 0.51 0.51 0.49 0.56 0.58 0.59 0.54 0.47 0.42 0.43 0.43 0.39 0.36 0.34 0.32 0.38 0.47 0.53 0.55 0.55 0.56 0.56 0.57 0.57 0.56 0.54 0.53 0.52 0.49 0.44 0.42 0.40 0.38 0.36 0.34 0.33 0.32 0.28
0.51 0.48 0.53 0.52 0.51 0.48 0.50 0.53 0.54 0.62 0.54 0.46 0.47 0.38 0.38 0.46 0.38 0.36 0.40 0.36 0.41 0.47 0.51 0.56 0.58 0.58 0.58 0.57 0.55 0.54 0.53 0.51 0.46 0.45 0.44 0.42 0.41 0.39 0.36 0.33 0.34 0.33 0.31 0.29

GFSNW_prec_pwat_063.txt.gz
Precipitable_Water
0.52 0.50 0.51 0.55 0.50 0.59 0.60 0.47 0.24 0.56 0.59 0.43 0.51 0.38 0.42 0.47 0.36 0.45 0.50 0.54 0.47 0.36 0.30 0.27 0.25 0.24 0.29 0.35 0.33 0.27 0.30 0.27 0.21 0.23 0.37 0.42 0.41 0.37 0.38 0.26 0.24 0.27 0.26 0.23
0.55 0.52 0.49 0.57 0.49 0.59 0.54 0.37 0.36 0.64 0.51 0.24 0.34 0.44 0.42 0.45 0.34 0.37 0.42 0.46 0.53 0.49 0.35 0.27 0.29 0.27 0.33 0.37 0.35 0.30 0.34 0.28 0.21 0.24 0.32 0.42 0.41 0.41 0.42 0.36 0.31 0.23 0.22 0.21
0.59 0.54 0.52 0.52 0.51 0.57 0.59 0.41 0.28 0.50 0.49 0.33 0.33 0.34 0.37 0.36 0.41 0.41 0.46 0.49 0.55 0.51 0.42 0.38 0.31 0.29 0.37 0.41 0.38 0.40 0.38 0.31 0.27 0.23 0.28 0.36 0.33 0.37 0.38 0.35 0.27 0.27 0.25 0.23
0.62 0.57 0.53 0.49 0.45 0.55 0.56 0.44 0.31 0.43 0.28 0.27 0.36 0.38 0.36 0.33 0.32 0.41 0.43 0.42 0.47 0.48 0.42 0.38 0.34 0.36 0.37 0.40 0.41 0.42 0.37 0.28 0.32 0.34 0.36 0.35 0.30 0.33 0.34 0.31 0.31 0.24 0.28 0.28
0.64 0.60 0.55 0.49 0.43 0.52 0.49 0.39 0.38 0.44 0.34 0.34 0.35 0.36 0.32 0.31 0.33 0.32 0.32 0.35 0.43 0.43 0.43 0.42 0.36 0.37 0.37 0.33 0.42 0.41 0.44 0.31 0.33 0.31 0.35 0.34 0.30 0.29 0.30 0.32 0.31 0.30 0.28 0.27
0.64 0.62 0.56 0.48 0.42 0.52 0.46 0.53 0.55 0.43 0.38 0.34 0.30 0.28 0.32 0.31 0.39 0.37 0.32 0.34 0.38 0.41 0.50 0.55 0.53 0.51 0.46 0.41 0.38 0.40 0.40 0.36 0.30 0.22 0.29 0.28 0.23 0.25 0.27 0.27 0.29 0.28 0.24 0.27
0.65 0.62 0.55 0.49 0.44 0.53 0.60 0.52 0.50 0.46 0.28 0.32 0.27 0.33 0.37 0.32 0.32 0.34 0.33 0.34 0.36 0.43 0.62 0.63 0.59 0.55 0.49 0.48 0.45 0.48 0.40 0.38 0.33 0.24 0.25 0.13 0.16 0.23 0.22 0.19 0.21 0.23 0.24 0.26
0.65 0.60 0.55 0.48 0.46 0.58 0.60 0.57 0.50 0.50 0.36 0.33 0.36 0.34 0.33 0.33 0.35 0.39 0.34 0.39 0.37 0.56 0.61 0.53 0.45 0.43 0.43 0.44 0.47 0.46 0.48 0.39 0.30 0.23 0.20 0.21 0.23 0.25 0.25 0.24 0.24 0.32 0.31 0.33
0.64 0.58 0.52 0.51 0.54 0.64 0.63 0.64 0.58 0.59 0.44 0.35 0.41 0.39 0.36 0.27 0.27 0.37 0.36 0.43 0.54 0.61 0.53 0.50 0.38 0.32 0.36 0.35 0.38 0.53 0.49 0.47 0.33 0.29 0.20 0.16 0.23 0.32 0.34 0.32 0.22 0.34 0.35 0.35
0.63 0.55 0.50 0.53 0.56 0.67 0.62 0.62 0.64 0.59 0.45 0.54 0.47 0.38 0.37 0.40 0.36 0.33 0.35 0.40 0.49 0.64 0.54 0.45 0.41 0.38 0.44 0.31 0.31 0.36 0.41 0.42 0.32 0.29 0.29 0.30 0.32 0.31 0.30 0.17 0.19 0.36 0.39 0.39
0.58 0.52 0.49 0.51 0.56 0.65 0.62 0.57 0.70 0.59 0.51 0.53 0.61 0.54 0.45 0.41 0.44 0.35 0.40 0.45 0.49 0.55 0.48 0.49 0.45 0.42 0.42 0.39 0.43 0.38 0.33 0.33 0.34 0.37 0.30 0.19 0.35 0.33 0.24 0.28 0.34 0.39 0.43 0.45
0.53 0.52 0.54 0.55 0.59 0.62 0.63 0.51 0.72 0.74 0.62 0.57 0.73 0.71 0.64 0.52 0.53 0.49 0.53 0.39 0.44 0.53 0.57 0.55 0.52 0.42 0.44 0.47 0.36 0.48 0.34 0.39 0.35 0.37 0.27 0.34 0.33 0.30 0.35 0.38 0.39 0.44 0.43 0.44
0.54 0.56 0.55 0.53 0.52 0.58 0.60 0.55 0.64 0.65 0.58 0.56 0.66 0.62 0.74 0.76 0.66 0.67 0.50 0.57 0.58 0.57 0.73 0.63 0.57 0.42 0.52 0.42 0.43 0.47 0.47 0.49 0.37 0.39 0.36 0.34 0.36 0.39 0.40 0.42 0.41 0.44 0.46 0.43
0.54 0.52 0.49 0.47 0.52 0.60 0.65 0.57 0.66 0.63 0.59 0.48 0.50 0.92 0.79 0.83 0.79 0.66 0.64 0.62 0.71 0.74 0.75 0.61 0.54 0.49 0.60 0.50 0.50 0.53 0.52 0.51 0.45 0.40 0.39 0.38 0.40 0.44 0.45 0.45 0.46 0.46 0.49 0.46
0.49 0.48 0.47 0.47 0.57 0.65 0.68 0.63 0.67 0.69 0.58 0.47 0.54 0.82 0.92 0.95 0.88 0.70 0.68 0.69 0.67 0.62 0.62 0.58 0.55 0.63 0.60 0.60 0.56 0.48 0.57 0.48 0.40 0.31 0.38 0.38 0.41 0.50 0.50 0.46 0.46 0.49 0.48 0.46
0.47 0.50 0.57 0.61 0.74 0.69 0.54 0.47 0.67 0.75 0.72 0.56 0.48 0.77 0.81 0.90 0.90 0.77 0.67 0.74 0.68 0.66 0.68 0.70 0.71 0.76 0.63 0.48 0.39 0.49 0.57 0.56 0.51 0.42 0.52 0.52 0.56 0.56 0.54 0.51 0.50 0.51 0.51 0.52
0.58 0.62 0.65 0.71 0.65 0.57 0.44 0.46 0.59 0.74 0.78 0.61 0.50 0.55 0.77 0.85 0.86 0.82 0.73 0.79 0.77 0.73 0.71 0.68 0.69 0.70 0.67 0.51 0.39 0.52 0.57 0.57 0.56 0.57 0.58 0.54 0.56 0.51 0.56 0.56 0.56 0.57 0.56 0.55
0.66 0.67 0.67 0.65 0.65 0.57 0.49 0.73 0.71 0.67 0.64 0.65 0.51 0.54 0.65 0.83 0.72 0.71 0.81 0.72 0.76 0.78 0.71 0.69 0.66 0.70 0.64 0.48 0.56 0.60 0.61 0.59 0.60 0.61 0.62 0.60 0.62 0.61 0.59 0.59 0.58 0.54 0.52 0.50
0.61 0.61 0.60 0.59 0.52 0.41 0.51 0.82 0.83 0.76 0.60 0.45 0.48 0.45 0.50 0.77 0.70 0.75 0.74 0.73 0.57 0.70 0.67 0.66 0.68 0.58 0.48 0.54 0.58 0.64 0.64 0.62 0.60 0.64 0.68 0.67 0.63 0.62 0.62 0.61 0.58 0.53 0.50 0.50
0.58 0.54 0.42 0.39 0.51 0.62 0.82 0.73 0.63 0.64 0.64 0.62 0.51 0.62 0.58 0.71 0.63 0.67 0.67 0.68 0.61 0.53 0.60 0.70 0.57 0.50 0.61 0.67 0.68 0.71 0.69 0.65 0.64 0.59 0.59 0.62 0.63 0.64 0.63 0.59 0.56 0.55 0.53 0.53
0.45 0.40 0.45 0.61 0.74 0.59 0.55 0.51 0.50 0.54 0.52 0.59 0.59 0.66 0.62 0.78 0.62 0.59 0.64 0.57 0.56 0.43 0.49 0.49 0.43 0.40 0.49 0.61 0.63 0.67 0.69 0.69 0.70 0.71 0.69 0.66 0.65 0.64 0.63 0.59 0.56 0.53 0.52 0.51
0.57 0.64 0.71 0.72 0.60 0.52 0.47 0.44 0.52 0.51 0.46 0.57 0.60 0.63 0.68 0.69 0.73 0.60 0.60 0.51 0.50 0.38 0.53 0.44 0.35 0.43 0.53 0.57 0.58 0.62 0.65 0.66 0.66 0.67 0.66 0.67 0.67 0.68 0.62 0.56 0.53 0.52 0.50 0.46
0.72 0.62 0.53 0.53 0.54 0.43 0.40 0.37 0.44 0.44 0.53 0.60 0.60 0.55 0.61 0.64 0.63 0.53 0.49 0.42 0.39 0.51 0.40 0.35 0.40 0.49 0.54 0.56 0.58 0.61 0.65 0.66 0.65 0.66 0.70 0.69 0.64 0.61 0.56 0.54 0.52 0.49 0.44 0.39
0.60 0.52 0.38 0.46 0.42 0.46 0.50 0.50 0.50 0.55 0.57 0.59 0.59 0.55 0.55 0.57 0.51 0.51 0.41 0.46 0.47 0.36 0.31 0.33 0.45 0.54 0.58 0.61 0.63 0.64 0.64 0.65 0.67 0.67 0.64 0.58 0.56 0.55 0.55 0.52 0.49 0.42 0.36 0.35
0.54 0.54 0.39 0.46 0.50 0.56 0.56 0.57 0.54 0.57 0.62 0.60 0.56 0.54 0.53 0.49 0.46 0.47 0.44 0.38 0.35 0.38 0.37 0.45 0.53 0.57 0.60 0.62 0.64 0.65 0.65 0.64 0.62 0.60 0.59 0.56 0.54 0.52 0.49 0.45 0.39 0.38 0.37 0.33
0.57 0.53 0.48 0.52 0.50 0.50 0.53 0.54 0.52 0.59 0.58 0.58 0.53 0.46 0.43 0.42 0.43 0.40 0.38 0.36 0.34 0.40 0.47 0.53 0.57 0.56 0.57 0.58 0.59 0.59 0.59 0.58 0.57 0.57 0.57 0.54 0.50 0.44 0.41 0.41 0.39 0.36 0.33 0.32
0.51 0.48 0.55 0.53 0.51 0.49 0.51 0.53 0.54 0.63 0.56 0.46 0.45 0.38 0.36 0.45 0.38 0.36 0.40 0.36 0.41 0.47 0.50 0.54 0.56 0.56 0.57 0.59 0.59 0.59 0.58 0.57 0.56 0.54 0.51 0.47 0.44 0.42 0.40 0.37 0.35 0.35 0.35 0.34

GFSNW_prec_pwat_066.txt.gz
Precipitable_Water
0.66 0.66 0.61 0.55 0.54 0.60 0.52 0.43 0.24 0.48 0.52 0.35 0.36 0.31 0.39 0.44 0.41 0.50 0.50 0.48 0.45 0.40 0.35 0.31 0.27 0.25 0.28 0.33 0.32 0.26 0.30 0.26 0.20 0.24 0.35 0.37 0.35 0.34 0.34 0.29 0.27 0.30 0.25 0.23
0.68 0.66 0.62 0.58 0.57 0.57 0.50 0.35 0.35 0.57 0.43 0.24 0.24 0.34 0.39 0.42 0.34 0.40 0.42 0.39 0.45 0.51 0.40 0.31 0.32 0.28 0.34 0.35 0.32 0.30 0.33 0.26 0.19 0.20 0.26 0.32 0.29 0.33 0.37 0.38 0.35 0.29 0.25 0.20
0.72 0.67 0.64 0.59 0.56 0.60 0.54 0.40 0.28 0.46 0.44 0.26 0.27 0.30 0.32 0.35 0.42 0.39 0.40 0.42 0.47 0.46 0.42 0.43 0.34 0.30 0.34 0.36 0.36 0.38 0.37 0.30 0.24 0.18 0.19 0.26 0.27 0.33 0.38 0.38 0.32 0.29 0.24 0.25
0.75 0.70 0.65 0.60 0.55 0.58 0.54 0.44 0.33 0.39 0.27 0.22 0.26 0.30 0.32 0.30 0.30 0.42 0.43 0.35 0.41 0.45 0.40 0.41 0.38 0.36 0.37 0.40 0.41 0.38 0.36 0.27 0.29 0.28 0.29 0.32 0.32 0.31 0.32 0.32 0.32 0.27 0.29 0.27
0.75 0.72 0.67 0.61 0.56 0.60 0.49 0.36 0.36 0.39 0.32 0.30 0.25 0.33 0.29 0.28 0.27 0.35 0.37 0.31 0.35 0.46 0.44 0.46 0.39 0.42 0.39 0.34 0.39 0.37 0.39 0.29 0.32 0.29 0.32 0.33 0.33 0.32 0.32 0.29 0.31 0.30 0.29 0.26
0.75 0.73 0.68 0.62 0.58 0.59 0.43 0.48 0.50 0.41 0.32 0.30 0.27 0.21 0.29 0.31 0.31 0.38 0.43 0.31 0.29 0.38 0.46 0.51 0.52 0.56 0.53 0.49 0.41 0.35 0.35 0.32 0.31 0.27 0.34 0.32 0.25 0.28 0.30 0.28 0.28 0.25 0.18 0.21
0.75 0.72 0.69 0.64 0.55 0.55 0.46 0.44 0.47 0.35 0.27 0.33 0.25 0.26 0.32 0.32 0.27 0.29 0.39 0.39 0.31 0.37 0.53 0.57 0.60 0.62 0.55 0.52 0.48 0.48 0.36 0.34 0.35 0.30 0.33 0.22 0.25 0.32 0.29 0.23 0.21 0.23 0.23 0.23
0.74 0.72 0.70 0.64 0.54 0.56 0.45 0.47 0.47 0.39 0.28 0.35 0.34 0.33 0.28 0.34 0.32 0.31 0.35 0.40 0.39 0.48 0.48 0.43 0.46 0.47 0.49 0.47 0.49 0.46 0.46 0.37 0.33 0.28 0.28 0.30 0.26 0.26 0.24 0.19 0.16 0.25 0.24 0.29
0.73 0.72 0.70 0.64 0.55 0.57 0.51 0.48 0.58 0.50 0.40 0.27 0.38 0.36 0.34 0.32 0.26 0.30 0.35 0.44 0.50 0.46 0.42 0.42 0.39 0.38 0.43 0.39 0.41 0.50 0.47 0.45 0.36 0.32 0.26 0.21 0.25 0.29 0.33 0.30 0.16 0.29 0.30 0.32
0.72 0.71 0.68 0.65 0.58 0.57 0.52 0.44 0.54 0.52 0.39 0.55 0.40 0.33 0.34 0.39 0.30 0.25 0.31 0.35 0.45 0.48 0.35 0.35 0.34 0.40 0.50 0.39 0.34 0.35 0.39 0.39 0.33 0.31 0.27 0.31 0.36 0.34 0.37 0.18 0.13 0.23 0.29 0.34
0.71 0.70 0.68 0.66 0.59 0.57 0.51 0.41 0.61 0.53 0.46 0.56 0.60 0.52 0.38 0.36 0.31 0.23 0.30 0.37 0.37 0.40 0.32 0.34 0.41 0.41 0.49 0.44 0.46 0.39 0.35 0.34 0.34 0.35 0.30 0.26 0.44 0.43 0.24 0.25 0.30 0.32 0.32 0.37
0.70 0.68 0.67 0.64 0.59 0.55 0.54 0.48 0.61 0.71 0.54 0.54 0.68 0.66 0.64 0.52 0.37 0.30 0.33 0.27 0.33 0.35 0.37 0.39 0.46 0.44 0.45 0.44 0.38 0.50 0.36 0.39 0.36 0.38 0.33 0.46 0.49 0.41 0.36 0.35 0.33 0.35 0.36 0.40
0.68 0.67 0.66 0.61 0.55 0.51 0.54 0.52 0.59 0.58 0.50 0.53 0.59 0.56 0.66 0.67 0.56 0.54 0.37 0.44 0.56 0.43 0.51 0.46 0.47 0.44 0.51 0.42 0.44 0.47 0.47 0.51 0.46 0.46 0.46 0.47 0.47 0.47 0.40 0.37 0.36 0.39 0.42 0.40
0.67 0.65 0.60 0.56 0.55 0.58 0.60 0.57 0.64 0.57 0.52 0.42 0.50 0.78 0.71 0.83 0.74 0.62 0.59 0.62 0.67 0.69 0.59 0.48 0.50 0.46 0.59 0.48 0.50 0.46 0.47 0.54 0.51 0.49 0.50 0.50 0.51 0.49 0.41 0.41 0.44 0.44 0.43 0.42
0.63 0.56 0.54 0.58 0.58 0.59 0.61 0.62 0.63 0.62 0.52 0.44 0.50 0.68 0.80 0.83 0.78 0.65 0.61 0.59 0.66 0.61 0.54 0.52 0.44 0.57 0.58 0.61 0.56 0.48 0.53 0.50 0.47 0.44 0.53 0.49 0.48 0.46 0.47 0.46 0.46 0.46 0.44 0.44
0.56 0.58 0.58 0.57 0.54 0.56 0.57 0.47 0.58 0.65 0.69 0.48 0.39 0.70 0.78 0.83 0.79 0.65 0.59 0.58 0.62 0.61 0.53 0.52 0.60 0.69 0.62 0.51 0.48 0.56 0.60 0.63 0.64 0.55 0.61 0.60 0.56 0.53 0.54 0.52 0.53 0.54 0.52 0.51
0.55 0.55 0.54 0.50 0.52 0.55 0.49 0.45 0.52 0.77 0.73 0.51 0.40 0.46 0.72 0.90 0.84 0.77 0.68 0.64 0.62 0.62 0.63 0.60 0.59 0.61 0.62 0.53 0.47 0.55 0.62 0.65 0.64 0.62 0.64 0.57 0.56 0.52 0.59 0.60 0.58 0.59 0.58 0.57
0.50 0.48 0.49 0.50 0.59 0.60 0.57 0.67 0.71 0.72 0.62 0.59 0.44 0.46 0.54 0.84 0.71 0.68 0.79 0.65 0.64 0.63 0.61 0.63 0.58 0.63 0.62 0.48 0.58 0.64 0.64 0.63 0.60 0.61 0.65 0.62 0.63 0.64 0.62 0.63 0.60 0.57 0.57 0.57
0.52 0.55 0.61 0.63 0.57 0.49 0.56 0.67 0.73 0.71 0.57 0.42 0.44 0.43 0.41 0.75 0.71 0.73 0.75 0.75 0.57 0.69 0.58 0.59 0.60 0.50 0.44 0.54 0.63 0.67 0.66 0.62 0.60 0.65 0.66 0.65 0.63 0.64 0.63 0.63 0.62 0.62 0.60 0.60
0.62 0.60 0.48 0.42 0.51 0.66 0.66 0.63 0.50 0.52 0.58 0.57 0.49 0.59 0.50 0.67 0.64 0.62 0.65 0.68 0.58 0.49 0.58 0.71 0.59 0.52 0.64 0.67 0.67 0.67 0.68 0.68 0.68 0.62 0.61 0.64 0.64 0.62 0.63 0.65 0.64 0.65 0.64 0.63
0.55 0.44 0.42 0.53 0.69 0.62 0.51 0.44 0.43 0.45 0.45 0.51 0.49 0.53 0.48 0.64 0.50 0.57 0.64 0.58 0.59 0.46 0.52 0.53 0.49 0.44 0.56 0.66 0.66 0.69 0.68 0.68 0.67 0.67 0.68 0.68 0.67 0.65 0.64 0.63 0.63 0.64 0.64 0.61
0.48 0.50 0.53 0.51 0.46 0.48 0.40 0.36 0.39 0.39 0.38 0.50 0.44 0.45 0.52 0.58 0.70 0.57 0.62 0.53 0.56 0.44 0.61 0.51 0.42 0.51 0.58 0.60 0.62 0.64 0.66 0.65 0.65 0.67 0.66 0.67 0.67 0.67 0.66 0.64 0.64 0.66 0.62 0.58
0.60 0.53 0.45 0.41 0.41 0.33 0.29 0.27 0.36 0.37 0.40 0.45 0.49 0.48 0.58 0.63 0.66 0.59 0.58 0.48 0.46 0.57 0.46 0.40 0.44 0.52 0.56 0.58 0.59 0.60 0.62 0.63 0.64 0.63 0.64 0.64 0.64 0.65 0.65 0.64 0.62 0.58 0.53 0.51
0.46 0.42 0.34 0.37 0.30 0.38 0.41 0.42 0.44 0.53 0.54 0.56 0.59 0.56 0.58 0.62 0.56 0.55 0.46 0.48 0.48 0.37 0.32 0.33 0.43 0.51 0.54 0.58 0.61 0.60 0.61 0.63 0.62 0.63 0.65 0.65 0.65 0.64 0.62 0.58 0.53 0.52 0.47 0.42
0.46 0.45 0.35 0.39 0.48 0.51 0.52 0.57 0.57 0.60 0.63 0.62 0.59 0.58 0.57 0.53 0.49 0.49 0.44 0.39 0.34 0.36 0.34 0.41 0.49 0.55 0.58 0.59 0.61 0.62 0.63 0.64 0.64 0.65 0.63 0.61 0.60 0.57 0.54 0.53 0.51 0.45 0.39 0.39
0.49 0.44 0.42 0.49 0.48 0.49 0.54 0.56 0.57 0.64 0.64 0.64 0.59 0.52 0.48 0.45 0.45 0.40 0.37 0.35 0.33 0.37 0.44 0.51 0.55 0.56 0.58 0.60 0.61 0.62 0.62 0.62 0.61 0.60 0.58 0.57 0.55 0.53 0.50 0.45 0.40 0.40 0.40 0.36
0.47 0.44 0.53 0.52 0.51 0.50 0.53 0.56 0.57 0.65 0.59 0.49 0.48 0.40 0.40 0.46 0.38 0.36 0.42 0.39 0.43 0.47 0.49 0.52 0.53 0.53 0.54 0.56 0.57 0.57 0.56 0.56 0.55 0.54 0.53 0.52 0.50 0.46 0.42 0.41 0.41 0.39 0.36 0.34

GFSNW_prec_pwat_072.txt.gz
Precipitable_Water
0.77 0.77 0.77 0.76 0.76 0.73 0.65 0.46 0.28 0.49 0.54 0.29 0.34 0.21 0.21 0.30 0.29 0.42 0.39 0.43 0.47 0.40 0.42 0.39 0.33 0.29 0.29 0.35 0.34 0.28 0.33 0.29 0.24 0.26 0.38 0.40 0.40 0.37 0.38 0.27 0.27 0.30 0.27 0.24
0.77 0.78 0.77 0.76 0.77 0.74 0.60 0.38 0.38 0.55 0.50 0.19 0.23 0.26 0.26 0.29 0.31 0.29 0.37 0.36 0.38 0.48 0.43 0.36 0.41 0.37 0.37 0.36 0.35 0.31 0.34 0.27 0.23 0.24 0.29 0.34 0.32 0.35 0.38 0.37 0.33 0.27 0.23 0.24
0.78 0.79 0.78 0.77 0.77 0.76 0.63 0.42 0.29 0.40 0.44 0.33 0.19 0.25 0.25 0.26 0.35 0.34 0.37 0.38 0.38 0.42 0.43 0.47 0.42 0.41 0.43 0.39 0.37 0.39 0.36 0.30 0.26 0.21 0.22 0.26 0.26 0.28 0.32 0.31 0.27 0.25 0.25 0.26
0.76 0.78 0.79 0.77 0.77 0.76 0.62 0.44 0.32 0.30 0.25 0.27 0.25 0.26 0.25 0.25 0.27 0.32 0.35 0.35 0.36 0.37 0.37 0.43 0.42 0.46 0.46 0.42 0.41 0.40 0.37 0.29 0.31 0.29 0.28 0.28 0.27 0.26 0.28 0.26 0.26 0.21 0.26 0.29
0.76 0.77 0.77 0.77 0.77 0.75 0.56 0.38 0.34 0.35 0.28 0.27 0.24 0.27 0.26 0.25 0.27 0.29 0.23 0.27 0.32 0.36 0.38 0.45 0.41 0.49 0.46 0.45 0.45 0.41 0.42 0.32 0.33 0.28 0.31 0.30 0.27 0.28 0.29 0.30 0.31 0.32 0.32 0.29
0.74 0.76 0.76 0.77 0.76 0.72 0.52 0.51 0.46 0.36 0.29 0.29 0.27 0.23 0.23 0.29 0.31 0.32 0.31 0.29 0.26 0.28 0.32 0.60 0.63 0.61 0.58 0.55 0.50 0.45 0.41 0.36 0.32 0.26 0.32 0.31 0.25 0.27 0.30 0.32 0.33 0.31 0.26 0.29
0.69 0.75 0.75 0.76 0.75 0.70 0.58 0.53 0.46 0.35 0.24 0.30 0.27 0.26 0.27 0.25 0.32 0.31 0.36 0.38 0.31 0.39 0.44 0.42 0.52 0.56 0.54 0.51 0.50 0.55 0.46 0.39 0.37 0.29 0.31 0.22 0.27 0.36 0.36 0.35 0.34 0.35 0.32 0.32
0.60 0.71 0.75 0.75 0.74 0.72 0.62 0.58 0.48 0.35 0.26 0.27 0.25 0.30 0.28 0.28 0.33 0.36 0.36 0.39 0.38 0.43 0.35 0.29 0.27 0.32 0.37 0.43 0.46 0.51 0.54 0.47 0.35 0.30 0.27 0.29 0.31 0.32 0.32 0.32 0.31 0.37 0.34 0.30
0.61 0.64 0.74 0.74 0.74 0.72 0.66 0.59 0.58 0.43 0.31 0.25 0.28 0.30 0.34 0.26 0.27 0.37 0.40 0.50 0.50 0.44 0.35 0.30 0.20 0.22 0.28 0.37 0.46 0.56 0.54 0.54 0.43 0.35 0.28 0.23 0.28 0.34 0.40 0.41 0.25 0.37 0.36 0.30
0.66 0.60 0.71 0.72 0.74 0.72 0.66 0.59 0.61 0.47 0.33 0.38 0.37 0.31 0.36 0.36 0.31 0.31 0.42 0.45 0.40 0.48 0.34 0.28 0.25 0.24 0.29 0.29 0.40 0.43 0.45 0.45 0.39 0.37 0.32 0.33 0.39 0.40 0.44 0.29 0.24 0.40 0.37 0.31
0.66 0.62 0.67 0.73 0.73 0.72 0.66 0.58 0.62 0.47 0.38 0.44 0.47 0.45 0.41 0.44 0.36 0.29 0.37 0.42 0.38 0.37 0.29 0.29 0.29 0.31 0.35 0.30 0.36 0.44 0.43 0.41 0.38 0.39 0.33 0.29 0.44 0.42 0.33 0.38 0.46 0.43 0.41 0.40
0.66 0.60 0.69 0.73 0.73 0.71 0.68 0.55 0.63 0.59 0.46 0.44 0.57 0.55 0.64 0.65 0.51 0.43 0.47 0.30 0.38 0.39 0.32 0.36 0.33 0.29 0.36 0.30 0.25 0.38 0.37 0.47 0.45 0.43 0.40 0.50 0.50 0.46 0.48 0.51 0.48 0.46 0.46 0.47
0.64 0.58 0.67 0.73 0.72 0.71 0.66 0.59 0.60 0.55 0.46 0.43 0.45 0.38 0.53 0.64 0.68 0.65 0.41 0.37 0.36 0.36 0.42 0.37 0.32 0.24 0.36 0.28 0.30 0.33 0.38 0.51 0.46 0.50 0.50 0.51 0.54 0.53 0.54 0.54 0.54 0.54 0.54 0.52
0.55 0.61 0.72 0.73 0.72 0.71 0.65 0.58 0.61 0.50 0.43 0.32 0.33 0.51 0.48 0.60 0.70 0.67 0.62 0.47 0.49 0.44 0.40 0.31 0.28 0.24 0.37 0.34 0.32 0.33 0.36 0.44 0.39 0.42 0.52 0.55 0.53 0.56 0.57 0.60 0.61 0.61 0.60 0.55
0.70 0.72 0.72 0.72 0.71 0.67 0.64 0.62 0.58 0.55 0.40 0.32 0.30 0.44 0.53 0.58 0.58 0.61 0.60 0.55 0.45 0.40 0.33 0.32 0.28 0.35 0.35 0.37 0.37 0.34 0.43 0.39 0.36 0.36 0.48 0.53 0.54 0.59 0.64 0.62 0.60 0.64 0.62 0.55
0.72 0.71 0.71 0.70 0.68 0.65 0.58 0.46 0.57 0.55 0.52 0.39 0.36 0.55 0.46 0.55 0.59 0.55 0.52 0.48 0.48 0.52 0.44 0.40 0.39 0.44 0.36 0.31 0.30 0.39 0.45 0.47 0.52 0.48 0.58 0.61 0.64 0.62 0.68 0.65 0.66 0.67 0.64 0.62
0.70 0.69 0.70 0.68 0.65 0.60 0.47 0.41 0.52 0.57 0.54 0.36 0.35 0.38 0.54 0.62 0.61 0.59 0.53 0.51 0.44 0.48 0.48 0.44 0.48 0.46 0.42 0.37 0.29 0.41 0.51 0.51 0.54 0.58 0.60 0.58 0.64 0.60 0.66 0.66 0.68 0.68 0.66 0.61
0.68 0.68 0.67 0.65 0.63 0.58 0.50 0.61 0.62 0.54 0.41 0.43 0.33 0.38 0.50 0.71 0.59 0.52 0.57 0.48 0.50 0.47 0.51 0.55 0.49 0.54 0.49 0.36 0.41 0.45 0.51 0.54 0.55 0.56 0.62 0.63 0.63 0.63 0.63 0.66 0.67 0.64 0.63 0.60
0.66 0.65 0.65 0.60 0.55 0.46 0.53 0.66 0.61 0.57 0.49 0.38 0.38 0.33 0.39 0.70 0.60 0.61 0.59 0.57 0.41 0.54 0.41 0.45 0.48 0.42 0.36 0.44 0.47 0.51 0.55 0.53 0.55 0.60 0.59 0.60 0.60 0.60 0.64 0.66 0.65 0.64 0.63 0.62
0.61 0.56 0.48 0.40 0.46 0.59 0.66 0.57 0.47 0.48 0.49 0.49 0.38 0.44 0.40 0.59 0.60 0.55 0.53 0.55 0.42 0.33 0.41 0.52 0.41 0.37 0.51 0.56 0.57 0.60 0.61 0.63 0.63 0.57 0.55 0.58 0.61 0.64 0.66 0.67 0.68 0.67 0.67 0.66
0.52 0.43 0.38 0.53 0.65 0.57 0.48 0.37 0.37 0.40 0.34 0.41 0.42 0.45 0.44 0.60 0.50 0.50 0.57 0.46 0.48 0.36 0.42 0.38 0.35 0.34 0.44 0.53 0.54 0.58 0.63 0.66 0.67 0.69 0.69 0.70 0.70 0.68 0.67 0.68 0.70 0.71 0.70 0.69
0.49 0.46 0.57 0.59 0.47 0.40 0.33 0.31 0.34 0.35 0.31 0.44 0.42 0.47 0.52 0.57 0.66 0.54 0.54 0.46 0.45 0.35 0.52 0.42 0.31 0.41 0.48 0.48 0.49 0.55 0.62 0.66 0.66 0.69 0.71 0.72 0.71 0.70 0.68 0.67 0.67 0.67 0.67 0.67
0.57 0.39 0.37 0.36 0.33 0.23 0.23 0.25 0.28 0.30 0.38 0.44 0.50 0.48 0.54 0.54 0.60 0.55 0.53 0.46 0.44 0.57 0.46 0.38 0.44 0.55 0.61 0.63 0.63 0.65 0.68 0.68 0.68 0.69 0.71 0.72 0.70 0.69 0.67 0.64 0.65 0.66 0.64 0.61
0.43 0.35 0.23 0.24 0.23 0.27 0.30 0.33 0.32 0.39 0.43 0.45 0.50 0.49 0.49 0.54 0.48 0.50 0.43 0.49 0.52 0.42 0.39 0.40 0.50 0.56 0.60 0.64 0.65 0.64 0.64 0.66 0.66 0.66 0.67 0.66 0.65 0.63 0.63 0.62 0.61 0.59 0.56 0.55
0.36 0.34 0.25 0.30 0.39 0.42 0.44 0.43 0.41 0.45 0.50 0.49 0.49 0.48 0.50 0.47 0.46 0.47 0.48 0.43 0.38 0.39 0.37 0.46 0.52 0.56 0.59 0.60 0.62 0.62 0.62 0.61 0.61 0.61 0.60 0.59 0.58 0.57 0.56 0.56 0.56 0.56 0.54 0.51
0.39 0.37 0.33 0.40 0.40 0.41 0.43 0.44 0.43 0.48 0.49 0.53 0.52 0.45 0.43 0.43 0.45 0.42 0.39 0.37 0.35 0.38 0.44 0.49 0.52 0.52 0.55 0.56 0.56 0.57 0.58 0.58 0.57 0.57 0.56 0.56 0.55 0.54 0.53 0.53 0.52 0.50 0.49 0.47
0.35 0.31 0.39 0.40 0.41 0.40 0.41 0.44 0.45 0.53 0.48 0.40 0.43 0.39 0.38 0.48 0.40 0.38 0.41 0.36 0.40 0.45 0.48 0.52 0.54 0.53 0.53 0.54 0.55 0.55 0.55 0.55 0.54 0.54 0.53 0.52 0.51 0.49 0.47 0.45 0.45 0.45 0.43 0.42

GFSNW_prec_pwat_075.txt.gz
Precipitable_Water
0.77 0.78 0.78 0.77 0.77 0.77 0.73 0.57 0.36 0.55 0.58 0.32 0.30 0.23 0.20 0.30 0.27 0.29 0.27 0.31 0.37 0.30 0.39 0.46 0.42 0.38 0.38 0.40 0.40 0.35 0.37 0.34 0.29 0.32 0.36 0.36 0.39 0.37 0.34 0.29 0.27 0.31 0.27 0.26
0.75 0.76 0.78 0.78 0.79 0.78 0.67 0.47 0.46 0.62 0.52 0.24 0.22 0.19 0.18 0.30 0.31 0.27 0.33 0.37 0.43 0.50 0.41 0.43 0.45 0.41 0.45 0.43 0.39 0.38 0.37 0.32 0.26 0.30 0.32 0.38 0.32 0.37 0.41 0.40 0.37 0.29 0.30 0.31
0.76 0.76 0.77 0.80 0.80 0.79 0.69 0.48 0.35 0.47 0.48 0.38 0.25 0.15 0.19 0.22 0.28 0.34 0.31 0.40 0.40 0.37 0.40 0.51 0.43 0.50 0.49 0.46 0.39 0.42 0.43 0.34 0.31 0.23 0.27 0.34 0.28 0.29 0.33 0.33 0.31 0.31 0.28 0.29
0.72 0.76 0.76 0.77 0.79 0.79 0.67 0.49 0.35 0.38 0.29 0.30 0.28 0.26 0.21 0.20 0.20 0.29 0.37 0.34 0.38 0.37 0.30 0.36 0.41 0.51 0.51 0.49 0.42 0.44 0.42 0.33 0.33 0.31 0.33 0.32 0.29 0.29 0.29 0.28 0.31 0.28 0.29 0.29
0.58 0.72 0.75 0.76 0.78 0.78 0.60 0.43 0.36 0.39 0.34 0.35 0.30 0.27 0.24 0.23 0.21 0.24 0.25 0.34 0.35 0.38 0.32 0.37 0.33 0.44 0.51 0.48 0.51 0.39 0.45 0.37 0.35 0.31 0.34 0.32 0.28 0.28 0.29 0.28 0.28 0.28 0.28 0.28
0.54 0.57 0.72 0.75 0.77 0.75 0.56 0.55 0.48 0.42 0.34 0.36 0.30 0.24 0.24 0.23 0.24 0.27 0.31 0.34 0.37 0.36 0.39 0.54 0.57 0.60 0.61 0.62 0.56 0.49 0.45 0.41 0.34 0.29 0.35 0.33 0.28 0.28 0.30 0.30 0.31 0.31 0.28 0.33
0.61 0.57 0.61 0.74 0.75 0.74 0.63 0.55 0.49 0.40 0.31 0.30 0.30 0.29 0.27 0.24 0.25 0.26 0.33 0.37 0.33 0.41 0.49 0.58 0.54 0.59 0.52 0.57 0.55 0.58 0.51 0.46 0.41 0.35 0.35 0.25 0.35 0.38 0.35 0.33 0.32 0.36 0.37 0.36
0.66 0.62 0.59 0.69 0.73 0.75 0.65 0.61 0.51 0.40 0.33 0.34 0.32 0.32 0.28 0.31 0.32 0.32 0.35 0.35 0.47 0.45 0.53 0.42 0.32 0.37 0.47 0.50 0.55 0.50 0.52 0.50 0.40 0.35 0.32 0.33 0.33 0.35 0.33 0.31 0.30 0.36 0.37 0.39
0.66 0.67 0.62 0.67 0.74 0.73 0.68 0.63 0.60 0.47 0.37 0.31 0.37 0.32 0.36 0.28 0.27 0.31 0.37 0.43 0.51 0.46 0.48 0.36 0.24 0.17 0.25 0.27 0.43 0.56 0.47 0.54 0.48 0.40 0.30 0.26 0.33 0.39 0.42 0.40 0.29 0.37 0.42 0.42
0.68 0.68 0.64 0.67 0.72 0.73 0.69 0.62 0.64 0.51 0.38 0.41 0.41 0.37 0.37 0.36 0.33 0.30 0.30 0.39 0.44 0.56 0.39 0.33 0.26 0.21 0.26 0.23 0.31 0.47 0.47 0.47 0.42 0.42 0.38 0.37 0.42 0.42 0.44 0.31 0.24 0.43 0.44 0.41
0.68 0.68 0.66 0.64 0.74 0.73 0.68 0.61 0.66 0.53 0.43 0.45 0.45 0.46 0.40 0.40 0.37 0.31 0.33 0.40 0.44 0.44 0.33 0.34 0.30 0.21 0.25 0.27 0.28 0.33 0.47 0.43 0.41 0.42 0.40 0.34 0.52 0.47 0.36 0.39 0.47 0.50 0.48 0.46
0.68 0.69 0.63 0.64 0.74 0.73 0.71 0.58 0.67 0.64 0.49 0.49 0.62 0.58 0.62 0.49 0.45 0.41 0.41 0.32 0.37 0.38 0.38 0.40 0.36 0.27 0.32 0.32 0.25 0.32 0.38 0.50 0.48 0.48 0.47 0.57 0.57 0.50 0.52 0.53 0.50 0.54 0.52 0.51
0.67 0.71 0.62 0.66 0.73 0.72 0.69 0.62 0.65 0.61 0.52 0.52 0.48 0.43 0.56 0.62 0.62 0.65 0.46 0.50 0.46 0.42 0.45 0.46 0.43 0.32 0.33 0.31 0.32 0.32 0.35 0.39 0.41 0.43 0.51 0.57 0.61 0.62 0.59 0.58 0.56 0.59 0.59 0.58
0.69 0.69 0.63 0.70 0.73 0.70 0.70 0.61 0.63 0.59 0.50 0.38 0.38 0.51 0.51 0.56 0.60 0.63 0.65 0.66 0.64 0.59 0.55 0.46 0.42 0.35 0.31 0.31 0.32 0.31 0.37 0.38 0.35 0.36 0.40 0.47 0.61 0.62 0.64 0.62 0.62 0.61 0.63 0.60
0.70 0.68 0.66 0.72 0.70 0.70 0.70 0.67 0.65 0.62 0.45 0.35 0.36 0.48 0.49 0.55 0.58 0.57 0.61 0.63 0.58 0.55 0.48 0.43 0.41 0.39 0.31 0.38 0.39 0.35 0.41 0.39 0.39 0.37 0.40 0.43 0.47 0.57 0.63 0.61 0.61 0.62 0.63 0.63
0.68 0.65 0.67 0.69 0.68 0.69 0.60 0.48 0.62 0.61 0.60 0.43 0.31 0.48 0.42 0.44 0.53 0.55 0.57 0.62 0.60 0.60 0.43 0.45 0.44 0.38 0.31 0.29 0.28 0.33 0.34 0.41 0.50 0.45 0.54 0.56 0.62 0.64 0.68 0.68 0.69 0.70 0.68 0.67
0.64 0.71 0.69 0.68 0.67 0.61 0.51 0.46 0.53 0.61 0.58 0.43 0.31 0.33 0.49 0.41 0.44 0.49 0.50 0.59 0.57 0.57 0.47 0.43 0.42 0.34 0.38 0.34 0.26 0.27 0.35 0.43 0.48 0.58 0.55 0.48 0.54 0.56 0.65 0.68 0.69 0.69 0.69 0.68
0.69 0.69 0.69 0.67 0.66 0.64 0.56 0.60 0.58 0.61 0.51 0.44 0.31 0.33 0.42 0.54 0.42 0.38 0.47 0.47 0.54 0.59 0.54 0.54 0.49 0.52 0.49 0.31 0.32 0.31 0.34 0.49 0.55 0.59 0.62 0.61 0.63 0.63 0.64 0.68 0.65 0.61 0.61 0.63
0.68 0.68 0.67 0.63 0.59 0.51 0.57 0.67 0.58 0.59 0.47 0.31 0.33 0.31 0.33 0.56 0.50 0.46 0.47 0.53 0.42 0.54 0.45 0.48 0.51 0.44 0.36 0.43 0.41 0.39 0.44 0.42 0.47 0.57 0.56 0.55 0.54 0.56 0.58 0.59 0.60 0.59 0.60 0.62
0.66 0.62 0.51 0.43 0.55 0.66 0.62 0.54 0.45 0.42 0.44 0.45 0.36 0.44 0.37 0.47 0.47 0.44 0.45 0.50 0.40 0.33 0.38 0.48 0.42 0.43 0.50 0.56 0.54 0.55 0.58 0.57 0.59 0.55 0.53 0.55 0.55 0.59 0.61 0.62 0.63 0.65 0.66 0.68
0.55 0.46 0.44 0.55 0.67 0.57 0.49 0.39 0.35 0.36 0.31 0.39 0.38 0.42 0.39 0.53 0.40 0.45 0.49 0.44 0.48 0.33 0.35 0.35 0.30 0.31 0.47 0.58 0.55 0.60 0.60 0.61 0.62 0.64 0.65 0.65 0.66 0.64 0.63 0.64 0.68 0.69 0.70 0.68
0.56 0.53 0.58 0.58 0.48 0.43 0.33 0.30 0.34 0.31 0.27 0.38 0.39 0.43 0.47 0.49 0.53 0.45 0.52 0.43 0.44 0.32 0.47 0.35 0.29 0.36 0.45 0.52 0.53 0.53 0.56 0.57 0.56 0.58 0.60 0.65 0.65 0.66 0.68 0.70 0.70 0.70 0.70 0.70
0.58 0.46 0.40 0.40 0.38 0.26 0.24 0.22 0.25 0.29 0.37 0.45 0.45 0.41 0.51 0.53 0.53 0.48 0.48 0.43 0.39 0.52 0.40 0.32 0.33 0.41 0.47 0.49 0.48 0.48 0.51 0.52 0.51 0.52 0.60 0.65 0.66 0.70 0.71 0.68 0.69 0.68 0.66 0.65
0.41 0.35 0.27 0.30 0.24 0.27 0.31 0.32 0.33 0.39 0.42 0.44 0.44 0.47 0.48 0.53 0.48 0.50 0.42 0.45 0.48 0.37 0.30 0.28 0.37 0.43 0.47 0.51 0.56 0.60 0.61 0.62 0.62 0.62 0.64 0.65 0.65 0.66 0.67 0.66 0.66 0.64 0.60 0.58
0.37 0.37 0.25 0.27 0.33 0.39 0.44 0.47 0.44 0.45 0.51 0.50 0.49 0.50 0.51 0.49 0.47 0.49 0.44 0.40 0.35 0.35 0.33 0.40 0.47 0.50 0.53 0.57 0.60 0.60 0.61 0.62 0.63 0.64 0.63 0.62 0.62 0.61 0.60 0.60 0.58 0.56 0.54 0.52
0.38 0.33 0.29 0.34 0.36 0.39 0.40 0.41 0.42 0.48 0.50 0.54 0.54 0.48 0.44 0.42 0.45 0.40 0.38 0.37 0.34 0.39 0.45 0.50 0.53 0.54 0.55 0.57 0.58 0.59 0.59 0.60 0.59 0.59 0.59 0.58 0.57 0.55 0.53 0.53 0.52 0.51 0.50 0.48
0.32 0.31 0.36 0.36 0.39 0.37 0.38 0.41 0.44 0.53 0.49 0.43 0.46 0.38 0.39 0.47 0.39 0.37 0.41 0.37 0.41 0.46 0.48 0.51 0.52 0.52 0.52 0.54 0.55 0.55 0.55 0.55 0.54 0.54 0.54 0.53 0.53 0.51 0.49 0.46 0.46 0.45 0.44 0.43

GFSNW_prec_pwat_078.txt.gz
Precipitable_Water
0.74 0.78 0.79 0.79 0.79 0.79 0.74 0.58 0.36 0.63 0.68 0.40 0.35 0.21 0.23 0.20 0.17 0.23 0.30 0.34 0.30 0.24 0.32 0.34 0.45 0.32 0.36 0.46 0.48 0.41 0.41 0.40 0.33 0.37 0.41 0.40 0.37 0.33 0.34 0.30 0.29 0.39 0.33 0.34
0.77 0.78 0.79 0.79 0.79 0.79 0.68 0.48 0.47 0.64 0.60 0.29 0.28 0.30 0.25 0.26 0.24 0.26 0.25 0.32 0.31 0.32 0.38 0.32 0.42 0.43 0.42 0.47 0.48 0.43 0.42 0.36 0.34 0.33 0.40 0.40 0.33 0.35 0.38 0.36 0.33 0.28 0.28 0.31
0.77 0.77 0.77 0.78 0.79 0.79 0.69 0.49 0.36 0.47 0.51 0.43 0.34 0.30 0.26 0.22 0.25 0.26 0.23 0.32 0.36 0.35 0.37 0.51 0.40 0.46 0.44 0.49 0.51 0.53 0.48 0.40 0.35 0.30 0.36 0.36 0.31 0.32 0.35 0.40 0.35 0.33 0.33 0.35
0.77 0.78 0.79 0.79 0.78 0.79 0.68 0.49 0.38 0.42 0.31 0.35 0.38 0.34 0.31 0.23 0.20 0.22 0.27 0.29 0.34 0.38 0.37 0.46 0.42 0.50 0.49 0.50 0.54 0.50 0.47 0.41 0.38 0.37 0.36 0.38 0.35 0.33 0.31 0.28 0.30 0.27 0.30 0.33
0.74 0.72 0.72 0.74 0.79 0.78 0.61 0.43 0.39 0.43 0.39 0.41 0.38 0.35 0.30 0.27 0.23 0.22 0.16 0.24 0.31 0.38 0.46 0.38 0.34 0.44 0.51 0.49 0.54 0.52 0.48 0.41 0.44 0.37 0.35 0.35 0.36 0.37 0.32 0.31 0.29 0.29 0.31 0.29
0.68 0.65 0.63 0.64 0.74 0.77 0.57 0.56 0.53 0.46 0.39 0.39 0.34 0.30 0.33 0.30 0.29 0.25 0.24 0.19 0.23 0.34 0.44 0.56 0.56 0.48 0.48 0.63 0.54 0.50 0.48 0.43 0.36 0.31 0.38 0.34 0.29 0.34 0.33 0.31 0.32 0.31 0.27 0.32
0.61 0.61 0.60 0.57 0.61 0.74 0.65 0.57 0.53 0.43 0.35 0.34 0.34 0.36 0.35 0.33 0.30 0.25 0.27 0.27 0.21 0.34 0.56 0.71 0.65 0.60 0.53 0.48 0.56 0.59 0.46 0.48 0.43 0.40 0.38 0.25 0.35 0.39 0.37 0.35 0.34 0.35 0.35 0.35
0.56 0.58 0.57 0.53 0.54 0.67 0.67 0.64 0.54 0.45 0.34 0.38 0.36 0.37 0.36 0.37 0.35 0.28 0.27 0.28 0.27 0.29 0.38 0.44 0.45 0.44 0.45 0.41 0.47 0.53 0.60 0.48 0.47 0.35 0.35 0.36 0.36 0.41 0.39 0.34 0.31 0.37 0.35 0.37
0.59 0.60 0.59 0.55 0.56 0.62 0.67 0.63 0.64 0.51 0.39 0.37 0.41 0.38 0.42 0.33 0.30 0.29 0.26 0.35 0.41 0.34 0.34 0.41 0.32 0.33 0.33 0.35 0.42 0.51 0.52 0.55 0.45 0.45 0.33 0.31 0.40 0.43 0.44 0.41 0.30 0.36 0.40 0.40
0.65 0.63 0.64 0.60 0.62 0.61 0.63 0.61 0.68 0.54 0.41 0.45 0.44 0.39 0.37 0.43 0.37 0.26 0.28 0.33 0.41 0.46 0.31 0.33 0.35 0.35 0.31 0.22 0.30 0.34 0.40 0.48 0.41 0.39 0.38 0.40 0.47 0.45 0.45 0.31 0.32 0.38 0.47 0.46
0.66 0.67 0.66 0.65 0.66 0.64 0.62 0.60 0.68 0.56 0.47 0.46 0.48 0.54 0.46 0.43 0.40 0.29 0.31 0.33 0.42 0.42 0.33 0.32 0.35 0.36 0.32 0.26 0.24 0.33 0.35 0.43 0.41 0.43 0.37 0.32 0.55 0.50 0.38 0.42 0.44 0.47 0.52 0.50
0.64 0.66 0.68 0.67 0.67 0.66 0.65 0.55 0.67 0.68 0.52 0.52 0.60 0.58 0.66 0.56 0.50 0.40 0.36 0.31 0.33 0.41 0.37 0.40 0.37 0.36 0.33 0.23 0.20 0.37 0.35 0.40 0.45 0.46 0.42 0.59 0.58 0.56 0.58 0.55 0.54 0.56 0.62 0.60
0.63 0.63 0.67 0.70 0.68 0.66 0.67 0.60 0.64 0.63 0.53 0.52 0.55 0.50 0.62 0.67 0.63 0.59 0.38 0.36 0.43 0.43 0.49 0.40 0.39 0.36 0.33 0.26 0.25 0.26 0.33 0.50 0.46 0.49 0.52 0.59 0.70 0.71 0.67 0.65 0.60 0.61 0.63 0.61
0.61 0.64 0.68 0.68 0.68 0.66 0.70 0.61 0.65 0.63 0.53 0.41 0.43 0.56 0.52 0.62 0.58 0.59 0.53 0.50 0.52 0.58 0.56 0.48 0.48 0.37 0.37 0.31 0.36 0.32 0.37 0.38 0.41 0.43 0.47 0.48 0.53 0.59 0.66 0.68 0.69 0.65 0.64 0.63
0.61 0.67 0.68 0.69 0.68 0.67 0.69 0.67 0.68 0.66 0.48 0.38 0.42 0.49 0.53 0.56 0.52 0.51 0.54 0.50 0.50 0.56 0.52 0.41 0.34 0.44 0.42 0.41 0.38 0.31 0.35 0.35 0.38 0.40 0.47 0.43 0.44 0.48 0.65 0.61 0.56 0.61 0.63 0.64
0.67 0.69 0.68 0.67 0.71 0.71 0.63 0.50 0.67 0.69 0.65 0.45 0.34 0.50 0.48 0.49 0.48 0.50 0.47 0.52 0.51 0.53 0.58 0.47 0.56 0.52 0.47 0.36 0.33 0.40 0.43 0.42 0.43 0.45 0.56 0.59 0.58 0.56 0.61 0.62 0.69 0.73 0.71 0.72
0.69 0.66 0.68 0.72 0.70 0.68 0.53 0.47 0.58 0.69 0.64 0.44 0.35 0.35 0.44 0.46 0.48 0.43 0.46 0.51 0.55 0.56 0.59 0.56 0.50 0.45 0.46 0.39 0.31 0.38 0.38 0.38 0.36 0.42 0.41 0.49 0.59 0.57 0.58 0.62 0.65 0.70 0.74 0.73
0.67 0.69 0.70 0.69 0.68 0.65 0.56 0.63 0.65 0.65 0.53 0.47 0.32 0.32 0.39 0.51 0.40 0.35 0.44 0.41 0.50 0.53 0.55 0.56 0.46 0.49 0.44 0.32 0.35 0.40 0.39 0.38 0.45 0.57 0.61 0.59 0.62 0.64 0.61 0.60 0.61 0.62 0.63 0.65
0.67 0.67 0.68 0.64 0.60 0.52 0.55 0.65 0.67 0.66 0.53 0.36 0.33 0.28 0.28 0.52 0.45 0.42 0.42 0.44 0.37 0.50 0.45 0.48 0.50 0.43 0.37 0.41 0.41 0.39 0.35 0.33 0.29 0.42 0.57 0.58 0.57 0.57 0.59 0.59 0.59 0.57 0.59 0.61
0.66 0.61 0.52 0.43 0.55 0.64 0.61 0.56 0.48 0.48 0.48 0.46 0.32 0.38 0.31 0.44 0.42 0.42 0.40 0.45 0.40 0.37 0.40 0.49 0.47 0.43 0.50 0.55 0.59 0.63 0.60 0.57 0.55 0.47 0.46 0.50 0.50 0.54 0.54 0.54 0.58 0.59 0.59 0.61
0.58 0.49 0.45 0.57 0.66 0.57 0.50 0.38 0.35 0.36 0.33 0.38 0.38 0.37 0.33 0.46 0.33 0.35 0.47 0.40 0.40 0.32 0.35 0.40 0.41 0.38 0.51 0.65 0.64 0.66 0.66 0.64 0.62 0.60 0.58 0.61 0.65 0.62 0.61 0.61 0.62 0.62 0.62 0.61
0.56 0.54 0.60 0.58 0.49 0.42 0.35 0.33 0.37 0.32 0.27 0.35 0.34 0.37 0.42 0.46 0.50 0.42 0.46 0.36 0.38 0.27 0.41 0.37 0.31 0.43 0.55 0.61 0.63 0.62 0.61 0.60 0.57 0.57 0.56 0.59 0.59 0.61 0.61 0.60 0.61 0.63 0.65 0.68
0.54 0.46 0.43 0.43 0.40 0.29 0.26 0.22 0.26 0.28 0.36 0.40 0.42 0.40 0.47 0.49 0.50 0.44 0.41 0.31 0.29 0.51 0.37 0.31 0.33 0.42 0.49 0.51 0.52 0.54 0.56 0.53 0.53 0.54 0.55 0.56 0.54 0.54 0.56 0.58 0.62 0.64 0.66 0.65
0.41 0.37 0.29 0.32 0.27 0.31 0.33 0.32 0.31 0.36 0.42 0.42 0.46 0.45 0.45 0.48 0.42 0.44 0.37 0.39 0.39 0.36 0.32 0.30 0.36 0.39 0.45 0.48 0.48 0.46 0.45 0.48 0.47 0.48 0.49 0.49 0.49 0.48 0.52 0.59 0.63 0.62 0.60 0.59
0.37 0.38 0.26 0.29 0.35 0.36 0.38 0.43 0.39 0.41 0.50 0.51 0.48 0.48 0.48 0.44 0.42 0.45 0.43 0.39 0.32 0.35 0.30 0.33 0.40 0.44 0.44 0.43 0.44 0.46 0.48 0.49 0.52 0.55 0.56 0.58 0.58 0.58 0.59 0.60 0.59 0.58 0.55 0.53
0.35 0.31 0.28 0.32 0.32 0.32 0.36 0.40 0.40 0.47 0.48 0.54 0.52 0.45 0.41 0.39 0.42 0.38 0.34 0.32 0.29 0.34 0.38 0.41 0.43 0.43 0.45 0.48 0.49 0.50 0.53 0.56 0.57 0.57 0.57 0.57 0.56 0.56 0.55 0.55 0.53 0.52 0.51 0.49
0.31 0.28 0.33 0.34 0.34 0.36 0.38 0.40 0.41 0.47 0.46 0.42 0.45 0.38 0.37 0.45 0.37 0.34 0.37 0.32 0.35 0.40 0.42 0.46 0.47 0.47 0.48 0.50 0.50 0.53 0.55 0.55 0.55 0.54 0.54 0.53 0.53 0.52 0.50 0.48 0.48 0.47 0.46 0.45

GFSNW_prec_pwat_084.txt.gz
Precipitable_Water
0.39 0.40 0.43 0.46 0.50 0.54 0.54 0.42 0.24 0.51 0.54 0.28 0.27 0.19 0.21 0.24 0.23 0.28 0.24 0.20 0.15 0.11 0.17 0.21 0.27 0.32 0.38 0.49 0.49 0.39 0.35 0.32 0.27 0.31 0.39 0.42 0.39 0.35 0.35 0.30 0.32 0.33 0.32 0.28
0.40 0.45 0.48 0.50 0.53 0.57 0.51 0.35 0.34 0.55 0.53 0.22 0.24 0.32 0.33 0.35 0.32 0.30 0.29 0.25 0.23 0.20 0.22 0.21 0.24 0.31 0.45 0.53 0.56 0.41 0.38 0.31 0.26 0.28 0.34 0.40 0.37 0.39 0.40 0.39 0.38 0.33 0.33 0.31
0.48 0.51 0.53 0.55 0.57 0.60 0.56 0.38 0.27 0.40 0.47 0.41 0.33 0.31 0.31 0.31 0.39 0.36 0.36 0.29 0.28 0.23 0.19 0.22 0.27 0.29 0.41 0.56 0.59 0.58 0.48 0.35 0.29 0.23 0.29 0.37 0.36 0.40 0.40 0.40 0.33 0.31 0.33 0.36
0.59 0.64 0.68 0.68 0.68 0.67 0.60 0.43 0.34 0.40 0.29 0.34 0.36 0.36 0.34 0.31 0.30 0.37 0.37 0.30 0.27 0.22 0.17 0.17 0.22 0.28 0.41 0.52 0.61 0.62 0.53 0.33 0.33 0.35 0.38 0.40 0.41 0.41 0.41 0.38 0.39 0.31 0.30 0.30
0.70 0.71 0.71 0.73 0.72 0.73 0.57 0.40 0.37 0.42 0.36 0.37 0.38 0.35 0.32 0.31 0.33 0.34 0.30 0.28 0.29 0.26 0.20 0.17 0.18 0.35 0.41 0.44 0.54 0.58 0.56 0.37 0.37 0.32 0.38 0.40 0.42 0.47 0.43 0.44 0.42 0.39 0.36 0.32
0.71 0.72 0.72 0.73 0.73 0.71 0.54 0.54 0.53 0.44 0.36 0.35 0.33 0.32 0.34 0.33 0.36 0.36 0.36 0.33 0.31 0.27 0.23 0.23 0.24 0.39 0.50 0.56 0.53 0.52 0.53 0.44 0.36 0.28 0.36 0.41 0.37 0.42 0.44 0.44 0.45 0.42 0.34 0.37
0.71 0.72 0.73 0.73 0.74 0.72 0.63 0.59 0.53 0.40 0.30 0.34 0.32 0.35 0.36 0.35 0.34 0.33 0.36 0.37 0.33 0.33 0.36 0.34 0.34 0.35 0.41 0.49 0.52 0.61 0.52 0.48 0.42 0.32 0.34 0.27 0.40 0.49 0.50 0.46 0.47 0.46 0.42 0.40
0.70 0.71 0.72 0.74 0.75 0.74 0.66 0.66 0.55 0.45 0.33 0.37 0.37 0.37 0.36 0.37 0.37 0.35 0.35 0.35 0.39 0.43 0.35 0.27 0.23 0.24 0.27 0.32 0.43 0.47 0.60 0.52 0.41 0.34 0.30 0.33 0.38 0.46 0.44 0.43 0.43 0.45 0.45 0.42
0.65 0.66 0.68 0.70 0.72 0.72 0.70 0.64 0.66 0.54 0.40 0.35 0.43 0.39 0.39 0.35 0.34 0.34 0.35 0.41 0.43 0.41 0.33 0.27 0.18 0.16 0.23 0.27 0.35 0.50 0.56 0.58 0.43 0.40 0.30 0.24 0.36 0.47 0.53 0.51 0.37 0.47 0.50 0.45
0.58 0.59 0.61 0.64 0.67 0.68 0.66 0.64 0.67 0.55 0.41 0.44 0.43 0.36 0.37 0.41 0.37 0.33 0.36 0.36 0.35 0.38 0.30 0.23 0.21 0.18 0.28 0.23 0.26 0.39 0.43 0.42 0.35 0.34 0.34 0.38 0.48 0.55 0.54 0.38 0.38 0.49 0.50 0.50
0.58 0.59 0.57 0.58 0.60 0.63 0.62 0.60 0.68 0.55 0.44 0.46 0.46 0.44 0.40 0.40 0.42 0.34 0.40 0.37 0.37 0.32 0.26 0.23 0.24 0.22 0.24 0.28 0.31 0.30 0.40 0.35 0.32 0.35 0.33 0.29 0.55 0.56 0.45 0.51 0.57 0.56 0.54 0.52
0.66 0.63 0.60 0.60 0.60 0.62 0.63 0.48 0.60 0.63 0.48 0.45 0.57 0.52 0.50 0.45 0.48 0.44 0.45 0.40 0.37 0.35 0.30 0.29 0.27 0.23 0.27 0.23 0.24 0.38 0.30 0.41 0.33 0.32 0.32 0.48 0.55 0.62 0.65 0.65 0.60 0.58 0.58 0.58
0.67 0.67 0.66 0.65 0.65 0.63 0.62 0.56 0.57 0.50 0.40 0.36 0.43 0.46 0.48 0.57 0.55 0.62 0.44 0.47 0.47 0.43 0.42 0.35 0.33 0.24 0.31 0.30 0.28 0.30 0.36 0.45 0.36 0.35 0.35 0.43 0.53 0.64 0.67 0.68 0.65 0.64 0.62 0.64
0.65 0.68 0.66 0.66 0.66 0.64 0.63 0.57 0.58 0.51 0.42 0.29 0.34 0.55 0.50 0.57 0.58 0.54 0.55 0.55 0.58 0.52 0.49 0.35 0.34 0.29 0.34 0.27 0.27 0.32 0.33 0.37 0.37 0.36 0.38 0.43 0.50 0.57 0.61 0.63 0.64 0.66 0.68 0.68
0.68 0.69 0.67 0.65 0.66 0.65 0.63 0.62 0.60 0.56 0.39 0.28 0.32 0.49 0.56 0.55 0.54 0.53 0.56 0.60 0.55 0.47 0.40 0.38 0.34 0.41 0.38 0.40 0.33 0.29 0.34 0.32 0.30 0.28 0.36 0.43 0.45 0.57 0.60 0.53 0.53 0.60 0.65 0.70
0.65 0.64 0.61 0.62 0.65 0.66 0.58 0.44 0.58 0.59 0.49 0.44 0.32 0.46 0.48 0.51 0.52 0.50 0.55 0.60 0.59 0.51 0.45 0.42 0.44 0.48 0.42 0.37 0.30 0.39 0.39 0.38 0.39 0.36 0.45 0.52 0.57 0.67 0.67 0.60 0.62 0.63 0.66 0.69
0.62 0.61 0.61 0.61 0.67 0.62 0.46 0.39 0.47 0.60 0.57 0.41 0.37 0.36 0.48 0.52 0.54 0.53 0.56 0.57 0.53 0.51 0.45 0.40 0.40 0.40 0.47 0.42 0.36 0.44 0.44 0.44 0.45 0.46 0.54 0.53 0.56 0.59 0.68 0.69 0.71 0.72 0.73 0.75
0.62 0.64 0.65 0.65 0.67 0.63 0.51 0.58 0.59 0.60 0.52 0.47 0.36 0.35 0.42 0.56 0.46 0.44 0.54 0.43 0.45 0.44 0.39 0.39 0.35 0.37 0.38 0.30 0.37 0.40 0.43 0.46 0.47 0.49 0.55 0.55 0.61 0.63 0.61 0.64 0.65 0.63 0.62 0.65
0.64 0.66 0.67 0.63 0.57 0.49 0.51 0.65 0.64 0.60 0.51 0.38 0.36 0.29 0.29 0.51 0.45 0.45 0.44 0.43 0.33 0.43 0.35 0.33 0.32 0.29 0.26 0.29 0.36 0.39 0.41 0.39 0.42 0.53 0.54 0.55 0.58 0.58 0.59 0.60 0.59 0.55 0.55 0.60
0.64 0.60 0.50 0.42 0.53 0.68 0.66 0.57 0.46 0.47 0.48 0.44 0.34 0.39 0.31 0.41 0.40 0.38 0.38 0.41 0.33 0.28 0.31 0.36 0.28 0.23 0.28 0.40 0.45 0.46 0.53 0.51 0.49 0.50 0.51 0.51 0.50 0.52 0.52 0.54 0.55 0.54 0.54 0.55
0.53 0.46 0.43 0.59 0.69 0.56 0.48 0.38 0.37 0.39 0.34 0.36 0.37 0.35 0.31 0.46 0.33 0.33 0.39 0.34 0.33 0.24 0.26 0.27 0.26 0.24 0.33 0.40 0.49 0.55 0.63 0.59 0.53 0.55 0.55 0.55 0.53 0.50 0.51 0.51 0.50 0.52 0.54 0.55
0.52 0.55 0.60 0.58 0.49 0.42 0.33 0.30 0.34 0.29 0.27 0.35 0.32 0.33 0.36 0.40 0.44 0.33 0.37 0.30 0.33 0.22 0.37 0.28 0.22 0.32 0.42 0.46 0.49 0.57 0.66 0.64 0.58 0.54 0.53 0.56 0.57 0.58 0.56 0.55 0.54 0.55 0.57 0.59
0.56 0.46 0.41 0.38 0.36 0.27 0.24 0.22 0.25 0.25 0.33 0.34 0.36 0.32 0.35 0.37 0.38 0.33 0.33 0.29 0.27 0.41 0.32 0.26 0.29 0.37 0.43 0.46 0.50 0.56 0.64 0.64 0.63 0.63 0.65 0.66 0.65 0.67 0.62 0.57 0.56 0.56 0.55 0.54
0.39 0.34 0.27 0.29 0.27 0.28 0.29 0.30 0.30 0.38 0.40 0.38 0.36 0.33 0.33 0.37 0.31 0.35 0.28 0.32 0.36 0.24 0.23 0.25 0.34 0.39 0.44 0.50 0.56 0.55 0.57 0.63 0.64 0.65 0.64 0.62 0.61 0.60 0.58 0.57 0.56 0.54 0.52 0.50
0.34 0.33 0.25 0.28 0.34 0.35 0.36 0.39 0.38 0.41 0.45 0.41 0.37 0.37 0.38 0.36 0.34 0.37 0.35 0.31 0.29 0.29 0.26 0.31 0.38 0.42 0.44 0.47 0.48 0.51 0.53 0.57 0.59 0.60 0.59 0.59 0.59 0.55 0.51 0.49 0.48 0.49 0.47 0.48
0.34 0.33 0.31 0.35 0.33 0.33 0.35 0.36 0.36 0.42 0.43 0.48 0.47 0.39 0.35 0.34 0.35 0.32 0.28 0.27 0.24 0.28 0.33 0.38 0.39 0.40 0.43 0.46 0.49 0.50 0.52 0.53 0.54 0.54 0.53 0.52 0.50 0.48 0.46 0.46 0.48 0.49 0.49 0.48
0.31 0.28 0.34 0.33 0.32 0.31 0.32 0.34 0.34 0.41 0.43 0.38 0.40 0.32 0.30 0.37 0.30 0.28 0.31 0.28 0.31 0.32 0.36 0.38 0.38 0.39 0.40 0.43 0.46 0.47 0.48 0.49 0.49 0.48 0.47 0.44 0.44 0.46 0.45 0.44 0.45 0.46 0.47 0.46

GFSNW_prec_pwat_087.txt.gz
Precipitable_Water
0.43 0.43 0.43 0.44 0.43 0.45 0.49 0.41 0.25 0.47 0.53 0.27 0.24 0.16 0.18 0.19 0.17 0.19 0.21 0.18 0.12 0.11 0.13 0.12 0.13 0.14 0.22 0.38 0.40 0.35 0.49 0.34 0.23 0.24 0.36 0.41 0.37 0.35 0.38 0.31 0.29 0.31 0.29 0.27
0.41 0.40 0.42 0.41 0.44 0.48 0.46 0.33 0.33 0.53 0.50 0.20 0.20 0.22 0.20 0.23 0.19 0.18 0.21 0.21 0.25 0.27 0.21 0.15 0.19 0.17 0.24 0.29 0.37 0.43 0.52 0.35 0.22 0.23 0.30 0.34 0.34 0.38 0.40 0.40 0.38 0.29 0.25 0.27
0.41 0.41 0.41 0.41 0.47 0.51 0.49 0.36 0.26 0.35 0.41 0.34 0.27 0.20 0.20 0.21 0.30 0.28 0.32 0.29 0.31 0.28 0.22 0.23 0.18 0.18 0.22 0.35 0.39 0.50 0.52 0.42 0.33 0.19 0.24 0.31 0.31 0.37 0.40 0.38 0.31 0.31 0.30 0.34
0.40 0.41 0.41 0.46 0.51 0.55 0.52 0.39 0.28 0.33 0.23 0.26 0.27 0.26 0.25 0.26 0.29 0.39 0.38 0.34 0.33 0.30 0.23 0.22 0.19 0.18 0.18 0.28 0.44 0.46 0.48 0.39 0.41 0.35 0.32 0.34 0.35 0.37 0.40 0.37 0.37 0.31 0.33 0.36
0.42 0.44 0.47 0.51 0.57 0.61 0.49 0.34 0.31 0.36 0.30 0.30 0.31 0.31 0.31 0.30 0.33 0.34 0.32 0.31 0.32 0.33 0.28 0.26 0.19 0.17 0.20 0.26 0.47 0.49 0.52 0.37 0.44 0.33 0.35 0.35 0.33 0.37 0.40 0.42 0.42 0.39 0.39 0.35
0.48 0.51 0.56 0.63 0.68 0.68 0.51 0.52 0.52 0.42 0.35 0.32 0.30 0.30 0.32 0.33 0.36 0.37 0.38 0.37 0.34 0.31 0.32 0.34 0.32 0.29 0.27 0.31 0.37 0.48 0.47 0.44 0.41 0.29 0.36 0.38 0.33 0.33 0.37 0.40 0.45 0.43 0.35 0.40
0.65 0.66 0.67 0.68 0.69 0.68 0.59 0.55 0.51 0.38 0.29 0.33 0.31 0.33 0.36 0.35 0.36 0.34 0.37 0.39 0.36 0.34 0.42 0.43 0.40 0.34 0.26 0.28 0.32 0.47 0.42 0.44 0.42 0.37 0.37 0.26 0.33 0.43 0.43 0.39 0.41 0.50 0.48 0.47
0.68 0.69 0.69 0.69 0.69 0.70 0.62 0.61 0.52 0.42 0.30 0.34 0.34 0.34 0.34 0.38 0.40 0.37 0.36 0.38 0.41 0.47 0.43 0.33 0.27 0.25 0.24 0.23 0.33 0.37 0.44 0.43 0.38 0.33 0.33 0.31 0.35 0.39 0.38 0.40 0.40 0.53 0.49 0.50
0.69 0.69 0.70 0.70 0.70 0.70 0.66 0.62 0.63 0.50 0.36 0.31 0.39 0.36 0.37 0.33 0.35 0.35 0.38 0.43 0.47 0.44 0.37 0.30 0.21 0.17 0.20 0.19 0.26 0.39 0.43 0.45 0.39 0.36 0.30 0.22 0.34 0.41 0.51 0.57 0.38 0.56 0.53 0.54
0.68 0.69 0.70 0.71 0.71 0.70 0.67 0.62 0.67 0.53 0.38 0.42 0.42 0.35 0.35 0.41 0.38 0.35 0.38 0.39 0.39 0.43 0.33 0.26 0.23 0.20 0.25 0.19 0.20 0.26 0.35 0.39 0.35 0.34 0.34 0.38 0.46 0.51 0.55 0.38 0.38 0.54 0.55 0.56
0.60 0.61 0.62 0.65 0.67 0.71 0.68 0.61 0.69 0.55 0.43 0.46 0.47 0.45 0.41 0.43 0.41 0.34 0.38 0.37 0.38 0.37 0.29 0.26 0.25 0.23 0.23 0.20 0.25 0.30 0.28 0.32 0.34 0.37 0.33 0.27 0.47 0.52 0.43 0.48 0.57 0.62 0.58 0.59
0.54 0.57 0.57 0.58 0.58 0.62 0.68 0.54 0.66 0.68 0.50 0.46 0.56 0.54 0.54 0.50 0.45 0.41 0.42 0.39 0.41 0.39 0.32 0.30 0.30 0.25 0.27 0.23 0.17 0.30 0.24 0.28 0.31 0.35 0.35 0.40 0.49 0.48 0.61 0.68 0.63 0.64 0.65 0.63
0.65 0.63 0.60 0.59 0.60 0.59 0.60 0.57 0.60 0.57 0.46 0.46 0.48 0.44 0.53 0.56 0.55 0.56 0.39 0.42 0.44 0.45 0.50 0.40 0.34 0.25 0.27 0.18 0.19 0.28 0.30 0.39 0.36 0.35 0.37 0.39 0.40 0.47 0.58 0.69 0.68 0.68 0.71 0.72
0.66 0.67 0.66 0.66 0.63 0.64 0.61 0.53 0.56 0.53 0.46 0.34 0.35 0.49 0.46 0.56 0.55 0.54 0.55 0.50 0.56 0.55 0.52 0.43 0.37 0.30 0.36 0.26 0.26 0.30 0.37 0.39 0.38 0.35 0.38 0.43 0.42 0.47 0.52 0.59 0.68 0.71 0.73 0.73
0.67 0.67 0.67 0.67 0.66 0.65 0.63 0.63 0.61 0.58 0.38 0.27 0.28 0.38 0.41 0.44 0.50 0.49 0.55 0.55 0.52 0.48 0.40 0.40 0.37 0.40 0.35 0.33 0.34 0.26 0.37 0.32 0.31 0.27 0.35 0.38 0.40 0.51 0.58 0.65 0.64 0.69 0.71 0.70
0.65 0.67 0.68 0.67 0.67 0.65 0.58 0.43 0.58 0.62 0.53 0.36 0.25 0.39 0.30 0.37 0.50 0.49 0.50 0.50 0.49 0.48 0.45 0.42 0.45 0.45 0.40 0.31 0.26 0.35 0.38 0.38 0.39 0.32 0.40 0.44 0.48 0.52 0.59 0.67 0.70 0.68 0.67 0.67
0.61 0.63 0.66 0.68 0.67 0.62 0.45 0.39 0.48 0.62 0.57 0.39 0.30 0.33 0.38 0.42 0.49 0.51 0.51 0.56 0.53 0.50 0.48 0.44 0.43 0.40 0.42 0.36 0.27 0.34 0.44 0.46 0.43 0.43 0.41 0.42 0.46 0.47 0.63 0.62 0.68 0.73 0.68 0.71
0.62 0.65 0.68 0.66 0.67 0.62 0.52 0.58 0.59 0.60 0.49 0.44 0.28 0.33 0.36 0.47 0.43 0.42 0.53 0.46 0.49 0.51 0.48 0.49 0.41 0.41 0.37 0.26 0.30 0.33 0.38 0.43 0.41 0.42 0.46 0.47 0.51 0.63 0.63 0.61 0.67 0.67 0.67 0.70
0.65 0.66 0.66 0.62 0.55 0.47 0.50 0.64 0.62 0.58 0.47 0.32 0.33 0.31 0.26 0.47 0.46 0.48 0.48 0.49 0.38 0.48 0.40 0.38 0.38 0.32 0.23 0.22 0.26 0.32 0.41 0.44 0.44 0.47 0.50 0.50 0.53 0.57 0.61 0.61 0.59 0.61 0.60 0.64
0.61 0.55 0.47 0.40 0.51 0.65 0.63 0.54 0.44 0.43 0.44 0.43 0.32 0.40 0.32 0.41 0.43 0.41 0.42 0.42 0.35 0.29 0.35 0.41 0.32 0.25 0.29 0.29 0.33 0.36 0.40 0.47 0.49 0.44 0.45 0.48 0.49 0.52 0.56 0.57 0.58 0.60 0.57 0.58
0.55 0.46 0.42 0.56 0.61 0.49 0.45 0.36 0.33 0.35 0.30 0.37 0.37 0.41 0.36 0.50 0.36 0.36 0.40 0.35 0.35 0.26 0.28 0.27 0.25 0.23 0.26 0.32 0.33 0.36 0.41 0.46 0.48 0.52 0.52 0.52 0.55 0.53 0.52 0.53 0.55 0.54 0.54 0.54
0.53 0.51 0.58 0.56 0.46 0.40 0.34 0.29 0.35 0.31 0.26 0.35 0.36 0.39 0.43 0.44 0.47 0.36 0.37 0.30 0.32 0.22 0.36 0.29 0.20 0.26 0.30 0.34 0.34 0.38 0.43 0.50 0.46 0.50 0.50 0.53 0.53 0.55 0.55 0.54 0.53 0.53 0.53 0.52
0.54 0.47 0.41 0.40 0.38 0.27 0.25 0.21 0.25 0.26 0.32 0.35 0.35 0.33 0.38 0.42 0.40 0.34 0.33 0.26 0.25 0.38 0.28 0.23 0.25 0.33 0.36 0.36 0.39 0.43 0.49 0.52 0.51 0.59 0.57 0.55 0.55 0.57 0.56 0.54 0.55 0.56 0.55 0.53
0.39 0.33 0.27 0.28 0.24 0.25 0.26 0.27 0.29 0.34 0.37 0.36 0.36 0.34 0.33 0.36 0.31 0.32 0.25 0.29 0.33 0.25 0.20 0.20 0.29 0.34 0.38 0.41 0.45 0.50 0.49 0.49 0.54 0.58 0.59 0.56 0.56 0.56 0.59 0.62 0.62 0.59 0.55 0.57
0.32 0.31 0.24 0.26 0.30 0.32 0.33 0.35 0.35 0.37 0.41 0.39 0.36 0.36 0.36 0.32 0.29 0.30 0.29 0.26 0.22 0.24 0.22 0.27 0.33 0.37 0.42 0.43 0.48 0.48 0.51 0.54 0.55 0.58 0.59 0.58 0.59 0.61 0.59 0.59 0.57 0.54 0.52 0.48
0.33 0.31 0.29 0.31 0.31 0.31 0.33 0.34 0.35 0.42 0.42 0.43 0.41 0.34 0.29 0.28 0.31 0.28 0.25 0.25 0.23 0.27 0.33 0.37 0.38 0.39 0.44 0.46 0.46 0.48 0.51 0.53 0.54 0.55 0.55 0.55 0.54 0.53 0.53 0.53 0.52 0.50 0.46 0.43
0.31 0.30 0.35 0.34 0.33 0.31 0.33 0.34 0.36 0.43 0.41 0.35 0.36 0.30 0.29 0.35 0.28 0.26 0.30 0.26 0.30 0.33 0.35 0.39 0.41 0.42 0.45 0.46 0.48 0.47 0.48 0.49 0.50 0.51 0.51 0.51 0.51 0.50 0.47 0.45 0.45 0.44 0.42 0.42

GFSNW_prec_pwat_090.txt.gz
Precipitable_Water
0.46 0.45 0.45 0.45 0.46 0.47 0.44 0.36 0.23 0.44 0.51 0.25 0.25 0.17 0.18 0.18 0.15 0.17 0.15 0.17 0.13 0.08 0.08 0.08 0.09 0.14 0.18 0.22 0.26 0.28 0.37 0.36 0.26 0.24 0.30 0.36 0.35 0.31 0.32 0.26 0.26 0.32 0.29 0.26
0.43 0.43 0.44 0.44 0.45 0.46 0.41 0.29 0.30 0.49 0.48 0.19 0.19 0.23 0.20 0.20 0.17 0.15 0.17 0.17 0.20 0.20 0.16 0.12 0.16 0.17 0.22 0.33 0.30 0.32 0.38 0.36 0.22 0.22 0.25 0.30 0.30 0.33 0.36 0.36 0.33 0.26 0.26 0.27
0.44 0.41 0.45 0.45 0.43 0.44 0.44 0.31 0.22 0.32 0.38 0.36 0.25 0.21 0.20 0.19 0.23 0.19 0.20 0.19 0.21 0.21 0.18 0.24 0.20 0.21 0.22 0.29 0.28 0.29 0.35 0.31 0.29 0.22 0.25 0.35 0.30 0.30 0.33 0.33 0.29 0.27 0.27 0.33
0.40 0.40 0.43 0.45 0.44 0.43 0.45 0.35 0.25 0.30 0.21 0.26 0.27 0.27 0.23 0.19 0.19 0.24 0.28 0.23 0.22 0.25 0.22 0.23 0.21 0.23 0.23 0.23 0.23 0.30 0.35 0.22 0.29 0.34 0.36 0.38 0.33 0.34 0.31 0.29 0.29 0.29 0.31 0.33
0.39 0.39 0.42 0.45 0.46 0.44 0.42 0.30 0.28 0.31 0.26 0.30 0.27 0.26 0.21 0.20 0.21 0.23 0.26 0.29 0.34 0.35 0.27 0.27 0.23 0.26 0.25 0.22 0.26 0.35 0.40 0.28 0.31 0.31 0.34 0.40 0.32 0.30 0.33 0.32 0.33 0.35 0.37 0.36
0.38 0.38 0.41 0.43 0.46 0.48 0.40 0.42 0.46 0.37 0.29 0.26 0.24 0.21 0.23 0.23 0.28 0.36 0.37 0.37 0.35 0.31 0.32 0.36 0.37 0.38 0.36 0.32 0.23 0.24 0.34 0.33 0.30 0.24 0.34 0.41 0.32 0.23 0.26 0.31 0.37 0.38 0.34 0.41
0.39 0.41 0.43 0.45 0.46 0.50 0.47 0.49 0.45 0.35 0.26 0.31 0.28 0.30 0.33 0.32 0.34 0.32 0.37 0.40 0.36 0.38 0.47 0.46 0.41 0.38 0.36 0.34 0.29 0.26 0.24 0.35 0.33 0.29 0.32 0.23 0.32 0.39 0.32 0.31 0.35 0.39 0.41 0.44
0.47 0.50 0.51 0.51 0.52 0.52 0.52 0.56 0.49 0.40 0.29 0.34 0.33 0.32 0.33 0.36 0.38 0.37 0.38 0.40 0.42 0.46 0.43 0.34 0.29 0.27 0.29 0.26 0.25 0.22 0.24 0.28 0.28 0.24 0.30 0.34 0.40 0.41 0.36 0.33 0.32 0.41 0.40 0.43
0.61 0.62 0.63 0.64 0.65 0.64 0.61 0.58 0.60 0.48 0.36 0.30 0.37 0.36 0.38 0.33 0.34 0.36 0.39 0.45 0.49 0.47 0.38 0.31 0.21 0.18 0.22 0.21 0.26 0.37 0.26 0.33 0.32 0.31 0.25 0.22 0.34 0.52 0.54 0.48 0.29 0.44 0.45 0.45
0.66 0.67 0.67 0.67 0.67 0.67 0.63 0.58 0.63 0.51 0.37 0.42 0.40 0.34 0.34 0.39 0.37 0.34 0.37 0.39 0.41 0.46 0.34 0.26 0.23 0.22 0.29 0.20 0.19 0.26 0.30 0.28 0.27 0.29 0.27 0.32 0.39 0.50 0.62 0.34 0.34 0.51 0.54 0.52
0.65 0.66 0.67 0.67 0.68 0.68 0.65 0.58 0.65 0.53 0.41 0.44 0.46 0.44 0.39 0.40 0.39 0.34 0.38 0.37 0.40 0.38 0.30 0.27 0.26 0.24 0.26 0.24 0.22 0.21 0.24 0.31 0.33 0.36 0.32 0.26 0.48 0.48 0.48 0.56 0.59 0.56 0.59 0.60
0.64 0.65 0.66 0.67 0.68 0.69 0.68 0.54 0.66 0.66 0.48 0.44 0.55 0.52 0.51 0.46 0.43 0.39 0.41 0.38 0.40 0.41 0.33 0.32 0.30 0.25 0.28 0.26 0.21 0.27 0.18 0.31 0.30 0.36 0.39 0.41 0.44 0.49 0.53 0.60 0.64 0.64 0.63 0.68
0.60 0.59 0.62 0.61 0.63 0.66 0.67 0.60 0.63 0.59 0.46 0.44 0.46 0.44 0.51 0.56 0.53 0.54 0.38 0.42 0.44 0.44 0.51 0.43 0.36 0.28 0.30 0.23 0.23 0.23 0.25 0.32 0.29 0.35 0.34 0.39 0.40 0.49 0.53 0.54 0.56 0.67 0.71 0.71
0.65 0.64 0.60 0.58 0.57 0.59 0.61 0.58 0.62 0.57 0.48 0.36 0.39 0.57 0.49 0.56 0.56 0.55 0.55 0.49 0.50 0.48 0.47 0.41 0.38 0.34 0.39 0.29 0.29 0.26 0.25 0.27 0.27 0.33 0.36 0.43 0.43 0.43 0.49 0.53 0.58 0.62 0.74 0.75
0.66 0.67 0.67 0.64 0.60 0.60 0.61 0.59 0.59 0.60 0.45 0.33 0.35 0.45 0.47 0.51 0.52 0.51 0.54 0.53 0.49 0.45 0.42 0.39 0.37 0.43 0.40 0.38 0.34 0.27 0.27 0.23 0.27 0.28 0.44 0.43 0.41 0.45 0.52 0.52 0.59 0.60 0.66 0.72
0.67 0.66 0.66 0.67 0.66 0.63 0.58 0.44 0.57 0.59 0.54 0.39 0.29 0.42 0.39 0.41 0.45 0.46 0.47 0.48 0.48 0.52 0.45 0.42 0.43 0.44 0.38 0.32 0.27 0.30 0.29 0.30 0.35 0.35 0.45 0.47 0.43 0.48 0.52 0.56 0.63 0.64 0.70 0.73
0.58 0.65 0.67 0.68 0.67 0.62 0.46 0.40 0.50 0.61 0.57 0.38 0.29 0.26 0.37 0.38 0.36 0.38 0.43 0.48 0.45 0.47 0.46 0.41 0.40 0.41 0.44 0.34 0.25 0.32 0.33 0.36 0.42 0.44 0.46 0.41 0.43 0.40 0.49 0.58 0.66 0.69 0.71 0.76
0.58 0.61 0.68 0.68 0.67 0.62 0.51 0.59 0.60 0.60 0.50 0.44 0.29 0.25 0.32 0.47 0.30 0.30 0.43 0.41 0.44 0.46 0.44 0.45 0.41 0.44 0.43 0.31 0.36 0.35 0.34 0.31 0.32 0.35 0.44 0.44 0.46 0.47 0.46 0.57 0.65 0.70 0.65 0.72
0.60 0.64 0.68 0.63 0.54 0.46 0.51 0.64 0.62 0.60 0.47 0.32 0.31 0.22 0.24 0.48 0.36 0.41 0.45 0.45 0.35 0.46 0.39 0.39 0.43 0.37 0.30 0.34 0.35 0.31 0.27 0.27 0.32 0.42 0.50 0.52 0.47 0.48 0.47 0.55 0.60 0.61 0.57 0.59
0.61 0.58 0.49 0.40 0.51 0.64 0.62 0.53 0.43 0.42 0.44 0.41 0.29 0.36 0.29 0.42 0.38 0.36 0.38 0.40 0.34 0.31 0.36 0.45 0.36 0.30 0.37 0.38 0.37 0.34 0.31 0.33 0.40 0.44 0.46 0.43 0.48 0.47 0.47 0.53 0.55 0.57 0.56 0.61
0.54 0.46 0.42 0.55 0.62 0.51 0.45 0.35 0.31 0.33 0.29 0.32 0.33 0.33 0.30 0.41 0.33 0.32 0.40 0.36 0.35 0.26 0.30 0.30 0.26 0.24 0.29 0.35 0.36 0.36 0.36 0.36 0.39 0.49 0.54 0.53 0.53 0.48 0.48 0.50 0.50 0.54 0.59 0.57
0.52 0.51 0.56 0.54 0.45 0.37 0.30 0.28 0.32 0.29 0.23 0.32 0.29 0.32 0.37 0.41 0.48 0.39 0.39 0.33 0.33 0.23 0.36 0.28 0.21 0.26 0.34 0.35 0.34 0.36 0.36 0.36 0.35 0.45 0.50 0.52 0.51 0.50 0.49 0.49 0.51 0.53 0.57 0.56
0.50 0.43 0.41 0.38 0.36 0.25 0.24 0.20 0.23 0.25 0.30 0.34 0.36 0.36 0.42 0.44 0.44 0.37 0.34 0.26 0.24 0.35 0.27 0.23 0.26 0.31 0.33 0.36 0.37 0.37 0.38 0.38 0.37 0.42 0.49 0.50 0.50 0.50 0.49 0.48 0.50 0.54 0.54 0.55
0.37 0.32 0.25 0.28 0.23 0.26 0.26 0.26 0.28 0.33 0.34 0.34 0.35 0.34 0.35 0.38 0.33 0.32 0.25 0.29 0.31 0.24 0.20 0.20 0.28 0.32 0.34 0.38 0.40 0.37 0.37 0.40 0.40 0.45 0.47 0.50 0.49 0.47 0.48 0.49 0.51 0.53 0.53 0.55
0.34 0.32 0.24 0.23 0.27 0.29 0.31 0.34 0.34 0.36 0.39 0.37 0.35 0.35 0.35 0.32 0.29 0.31 0.29 0.25 0.22 0.23 0.21 0.26 0.31 0.36 0.35 0.36 0.38 0.38 0.41 0.44 0.46 0.49 0.50 0.50 0.50 0.48 0.49 0.50 0.51 0.54 0.56 0.52
0.31 0.29 0.26 0.28 0.27 0.27 0.30 0.32 0.33 0.39 0.40 0.43 0.40 0.33 0.30 0.29 0.30 0.27 0.24 0.23 0.21 0.24 0.28 0.33 0.39 0.36 0.36 0.37 0.39 0.41 0.48 0.50 0.49 0.47 0.49 0.53 0.52 0.51 0.52 0.53 0.52 0.50 0.49 0.49
0.29 0.28 0.32 0.31 0.30 0.29 0.31 0.34 0.35 0.42 0.38 0.33 0.35 0.28 0.27 0.32 0.26 0.24 0.27 0.24 0.27 0.31 0.33 0.36 0.37 0.38 0.38 0.38 0.40 0.45 0.47 0.46 0.47 0.47 0.49 0.49 0.50 0.50 0.48 0.46 0.45 0.44 0.45 0.46

GFSNW_prec_pwat_096.txt.gz
Precipitable_Water
0.53 0.57 0.54 0.51 0.51 0.48 0.49 0.37 0.20 0.41 0.47 0.22 0.22 0.15 0.15 0.16 0.13 0.15 0.12 0.12 0.13 0.12 0.12 0.09 0.06 0.06 0.09 0.14 0.18 0.17 0.30 0.29 0.24 0.25 0.36 0.40 0.38 0.31 0.25 0.18 0.22 0.30 0.28 0.28
0.50 0.54 0.55 0.56 0.59 0.54 0.46 0.30 0.28 0.45 0.45 0.17 0.17 0.20 0.18 0.19 0.16 0.16 0.13 0.12 0.14 0.14 0.12 0.09 0.08 0.10 0.15 0.19 0.24 0.23 0.25 0.26 0.21 0.24 0.29 0.36 0.35 0.39 0.38 0.35 0.30 0.23 0.24 0.30
0.46 0.54 0.53 0.58 0.58 0.55 0.48 0.33 0.22 0.30 0.34 0.30 0.21 0.18 0.17 0.16 0.22 0.21 0.21 0.19 0.20 0.19 0.17 0.19 0.14 0.17 0.20 0.26 0.28 0.30 0.28 0.21 0.17 0.16 0.27 0.32 0.27 0.32 0.36 0.36 0.30 0.27 0.26 0.29
0.45 0.57 0.56 0.56 0.57 0.52 0.48 0.33 0.22 0.26 0.19 0.20 0.25 0.24 0.21 0.18 0.18 0.25 0.26 0.22 0.19 0.16 0.12 0.14 0.15 0.18 0.18 0.20 0.26 0.29 0.26 0.18 0.21 0.21 0.19 0.21 0.23 0.25 0.27 0.29 0.32 0.29 0.32 0.33
0.47 0.50 0.53 0.59 0.56 0.52 0.41 0.27 0.26 0.29 0.22 0.24 0.21 0.22 0.19 0.20 0.23 0.24 0.21 0.21 0.22 0.24 0.19 0.17 0.18 0.25 0.23 0.24 0.29 0.27 0.34 0.18 0.24 0.21 0.23 0.20 0.16 0.17 0.22 0.27 0.28 0.29 0.29 0.28
0.48 0.49 0.53 0.52 0.55 0.51 0.39 0.41 0.38 0.29 0.23 0.21 0.22 0.20 0.22 0.23 0.26 0.26 0.26 0.25 0.24 0.22 0.28 0.37 0.39 0.39 0.35 0.32 0.28 0.27 0.27 0.23 0.21 0.14 0.25 0.25 0.17 0.15 0.15 0.15 0.23 0.32 0.27 0.31
0.46 0.46 0.50 0.53 0.54 0.51 0.42 0.43 0.36 0.28 0.20 0.22 0.19 0.22 0.24 0.25 0.26 0.25 0.27 0.28 0.27 0.33 0.46 0.45 0.42 0.39 0.38 0.35 0.34 0.34 0.26 0.24 0.22 0.16 0.22 0.14 0.22 0.33 0.26 0.19 0.26 0.34 0.40 0.39
0.44 0.45 0.47 0.47 0.48 0.48 0.45 0.42 0.40 0.30 0.22 0.22 0.23 0.25 0.25 0.26 0.27 0.26 0.27 0.31 0.38 0.49 0.42 0.31 0.26 0.28 0.29 0.27 0.30 0.32 0.33 0.27 0.20 0.15 0.13 0.16 0.23 0.28 0.33 0.32 0.31 0.42 0.46 0.44
0.44 0.43 0.45 0.46 0.47 0.47 0.45 0.43 0.47 0.40 0.28 0.23 0.25 0.24 0.26 0.25 0.26 0.27 0.31 0.39 0.47 0.46 0.36 0.30 0.21 0.19 0.22 0.21 0.28 0.36 0.33 0.33 0.25 0.19 0.14 0.12 0.17 0.40 0.46 0.42 0.25 0.49 0.51 0.54
0.48 0.48 0.46 0.45 0.45 0.45 0.45 0.41 0.48 0.40 0.29 0.29 0.37 0.32 0.29 0.33 0.30 0.30 0.35 0.37 0.38 0.45 0.31 0.25 0.24 0.23 0.26 0.22 0.22 0.26 0.29 0.29 0.22 0.24 0.21 0.19 0.27 0.37 0.47 0.26 0.32 0.49 0.55 0.57
0.48 0.48 0.49 0.50 0.50 0.48 0.44 0.39 0.49 0.41 0.32 0.30 0.32 0.34 0.35 0.40 0.38 0.31 0.39 0.36 0.35 0.36 0.28 0.28 0.27 0.25 0.26 0.24 0.26 0.29 0.25 0.23 0.22 0.25 0.22 0.16 0.35 0.42 0.36 0.49 0.54 0.54 0.56 0.63
0.52 0.51 0.51 0.52 0.53 0.54 0.53 0.42 0.52 0.55 0.41 0.39 0.45 0.40 0.42 0.44 0.40 0.38 0.40 0.35 0.37 0.40 0.33 0.34 0.33 0.28 0.29 0.27 0.21 0.28 0.21 0.24 0.23 0.27 0.28 0.35 0.40 0.50 0.60 0.63 0.58 0.54 0.59 0.67
0.58 0.59 0.59 0.59 0.61 0.63 0.61 0.54 0.57 0.53 0.42 0.41 0.41 0.39 0.48 0.54 0.51 0.51 0.38 0.40 0.41 0.42 0.46 0.40 0.37 0.29 0.32 0.25 0.26 0.27 0.29 0.34 0.29 0.30 0.31 0.40 0.50 0.57 0.60 0.60 0.56 0.66 0.68 0.74
0.59 0.60 0.61 0.64 0.65 0.66 0.64 0.56 0.59 0.54 0.45 0.33 0.37 0.52 0.46 0.53 0.55 0.52 0.51 0.46 0.47 0.46 0.47 0.40 0.36 0.31 0.40 0.31 0.32 0.30 0.32 0.33 0.29 0.29 0.30 0.33 0.38 0.49 0.52 0.53 0.60 0.62 0.71 0.77
0.62 0.62 0.62 0.62 0.62 0.65 0.65 0.63 0.61 0.61 0.44 0.34 0.36 0.46 0.47 0.49 0.51 0.50 0.51 0.49 0.46 0.44 0.40 0.37 0.33 0.38 0.36 0.36 0.35 0.30 0.36 0.31 0.28 0.26 0.34 0.33 0.34 0.39 0.46 0.50 0.53 0.55 0.70 0.75
0.64 0.64 0.64 0.63 0.63 0.64 0.58 0.43 0.59 0.63 0.58 0.41 0.30 0.44 0.42 0.46 0.49 0.48 0.46 0.47 0.47 0.46 0.41 0.38 0.41 0.46 0.40 0.31 0.27 0.34 0.37 0.37 0.38 0.33 0.37 0.37 0.35 0.40 0.48 0.51 0.52 0.53 0.66 0.72
0.67 0.66 0.66 0.64 0.64 0.62 0.48 0.43 0.51 0.64 0.61 0.41 0.32 0.32 0.40 0.44 0.47 0.47 0.46 0.50 0.48 0.47 0.42 0.38 0.39 0.39 0.41 0.32 0.25 0.32 0.35 0.36 0.35 0.35 0.35 0.33 0.35 0.35 0.46 0.51 0.52 0.54 0.62 0.69
0.66 0.67 0.67 0.66 0.66 0.63 0.53 0.61 0.63 0.62 0.51 0.45 0.31 0.30 0.32 0.41 0.33 0.33 0.44 0.40 0.43 0.44 0.40 0.41 0.37 0.39 0.39 0.28 0.34 0.37 0.37 0.36 0.35 0.36 0.39 0.38 0.36 0.36 0.38 0.48 0.55 0.53 0.54 0.66
0.63 0.66 0.68 0.63 0.55 0.46 0.52 0.64 0.64 0.62 0.49 0.34 0.31 0.25 0.24 0.41 0.34 0.35 0.36 0.38 0.30 0.39 0.33 0.34 0.37 0.32 0.26 0.29 0.32 0.33 0.35 0.37 0.38 0.40 0.41 0.37 0.34 0.37 0.40 0.45 0.52 0.51 0.52 0.60
0.62 0.62 0.49 0.39 0.49 0.64 0.63 0.53 0.43 0.43 0.44 0.41 0.31 0.34 0.27 0.34 0.34 0.33 0.34 0.37 0.28 0.23 0.26 0.33 0.31 0.27 0.33 0.35 0.36 0.35 0.40 0.41 0.42 0.39 0.36 0.33 0.36 0.35 0.40 0.43 0.50 0.55 0.57 0.59
0.52 0.45 0.42 0.54 0.63 0.51 0.44 0.35 0.33 0.34 0.30 0.33 0.32 0.31 0.29 0.41 0.30 0.31 0.36 0.33 0.31 0.21 0.25 0.26 0.21 0.19 0.27 0.35 0.37 0.41 0.43 0.44 0.44 0.46 0.44 0.41 0.39 0.38 0.41 0.47 0.49 0.53 0.56 0.58
0.52 0.52 0.57 0.54 0.45 0.39 0.31 0.29 0.31 0.27 0.23 0.30 0.28 0.31 0.35 0.36 0.41 0.34 0.35 0.29 0.32 0.24 0.36 0.28 0.20 0.30 0.36 0.38 0.39 0.40 0.43 0.42 0.42 0.43 0.41 0.41 0.40 0.39 0.39 0.47 0.50 0.51 0.56 0.58
0.53 0.45 0.42 0.38 0.35 0.25 0.22 0.19 0.22 0.22 0.28 0.31 0.31 0.29 0.35 0.36 0.38 0.33 0.33 0.27 0.25 0.35 0.27 0.23 0.27 0.34 0.36 0.38 0.41 0.41 0.42 0.41 0.40 0.40 0.41 0.41 0.38 0.38 0.37 0.44 0.52 0.53 0.53 0.57
0.37 0.32 0.25 0.26 0.23 0.24 0.25 0.25 0.26 0.30 0.32 0.33 0.33 0.31 0.32 0.36 0.30 0.32 0.25 0.31 0.33 0.24 0.22 0.24 0.31 0.36 0.39 0.41 0.41 0.39 0.37 0.39 0.40 0.38 0.38 0.37 0.36 0.34 0.34 0.42 0.52 0.51 0.52 0.50
0.30 0.28 0.21 0.23 0.27 0.28 0.28 0.30 0.31 0.33 0.38 0.37 0.36 0.36 0.36 0.33 0.31 0.32 0.30 0.26 0.23 0.25 0.24 0.29 0.34 0.37 0.37 0.37 0.37 0.37 0.37 0.38 0.39 0.38 0.36 0.35 0.35 0.35 0.33 0.36 0.50 0.51 0.51 0.50
0.29 0.27 0.24 0.26 0.25 0.25 0.28 0.29 0.31 0.37 0.37 0.40 0.40 0.34 0.30 0.29 0.31 0.27 0.25 0.24 0.21 0.25 0.29 0.33 0.35 0.35 0.36 0.38 0.39 0.38 0.38 0.37 0.36 0.37 0.37 0.37 0.36 0.35 0.38 0.38 0.41 0.47 0.48 0.46
0.26 0.24 0.27 0.26 0.25 0.26 0.28 0.31 0.32 0.38 0.35 0.31 0.34 0.26 0.25 0.31 0.25 0.23 0.26 0.23 0.27 0.31 0.33 0.35 0.37 0.37 0.36 0.37 0.38 0.37 0.36 0.36 0.36 0.36 0.37 0.38 0.39 0.41 0.39 0.37 0.39 0.41 0.43 0.43

GFSNW_prec_pwat_099.txt.gz
Precipitable_Water
0.43 0.45 0.49 0.47 0.52 0.55 0.53 0.42 0.26 0.50 0.50 0.26 0.24 0.17 0.17 0.19 0.15 0.15 0.13 0.11 0.10 0.11 0.12 0.12 0.12 0.10 0.09 0.13 0.14 0.14 0.23 0.26 0.22 0.25 0.36 0.39 0.37 0.26 0.29 0.27 0.26 0.29 0.30 0.31
0.44 0.45 0.46 0.51 0.54 0.58 0.47 0.32 0.33 0.51 0.48 0.20 0.20 0.21 0.20 0.20 0.18 0.15 0.13 0.12 0.11 0.12 0.12 0.11 0.11 0.10 0.11 0.11 0.17 0.24 0.33 0.20 0.16 0.18 0.22 0.31 0.32 0.34 0.36 0.33 0.31 0.25 0.25 0.31
0.44 0.46 0.43 0.46 0.54 0.59 0.54 0.36 0.26 0.36 0.38 0.34 0.27 0.25 0.21 0.18 0.23 0.20 0.20 0.17 0.17 0.14 0.12 0.14 0.13 0.14 0.18 0.25 0.26 0.32 0.29 0.19 0.19 0.18 0.26 0.37 0.33 0.34 0.40 0.38 0.32 0.31 0.28 0.27
0.42 0.45 0.43 0.46 0.52 0.58 0.52 0.38 0.26 0.34 0.24 0.25 0.26 0.25 0.26 0.20 0.19 0.23 0.23 0.18 0.18 0.16 0.14 0.15 0.16 0.19 0.20 0.22 0.23 0.23 0.26 0.17 0.18 0.19 0.20 0.27 0.32 0.28 0.28 0.27 0.32 0.32 0.35 0.36
0.41 0.44 0.47 0.52 0.54 0.54 0.46 0.33 0.28 0.30 0.26 0.26 0.24 0.22 0.21 0.24 0.20 0.23 0.20 0.18 0.20 0.23 0.16 0.16 0.15 0.16 0.17 0.19 0.22 0.20 0.24 0.23 0.22 0.19 0.20 0.19 0.20 0.25 0.25 0.23 0.25 0.27 0.31 0.32
0.41 0.46 0.47 0.50 0.56 0.57 0.43 0.42 0.38 0.33 0.29 0.25 0.23 0.23 0.21 0.22 0.23 0.26 0.26 0.26 0.26 0.24 0.26 0.33 0.35 0.35 0.36 0.35 0.33 0.31 0.30 0.25 0.22 0.18 0.20 0.17 0.15 0.15 0.13 0.14 0.17 0.21 0.22 0.28
0.45 0.46 0.48 0.48 0.52 0.55 0.51 0.42 0.37 0.29 0.22 0.25 0.23 0.22 0.26 0.24 0.26 0.25 0.29 0.27 0.26 0.30 0.42 0.41 0.38 0.37 0.33 0.32 0.32 0.34 0.28 0.25 0.24 0.18 0.24 0.14 0.17 0.27 0.29 0.27 0.24 0.19 0.19 0.20
0.46 0.46 0.46 0.47 0.50 0.51 0.50 0.49 0.39 0.32 0.24 0.24 0.22 0.23 0.24 0.25 0.27 0.25 0.27 0.31 0.35 0.43 0.35 0.29 0.25 0.24 0.26 0.26 0.31 0.30 0.31 0.27 0.23 0.16 0.14 0.16 0.21 0.24 0.27 0.29 0.29 0.37 0.36 0.43
0.48 0.45 0.45 0.46 0.50 0.52 0.49 0.47 0.48 0.37 0.29 0.23 0.26 0.24 0.24 0.24 0.24 0.25 0.27 0.31 0.39 0.41 0.33 0.29 0.19 0.20 0.24 0.25 0.28 0.31 0.33 0.33 0.26 0.23 0.15 0.12 0.18 0.33 0.41 0.45 0.31 0.50 0.56 0.54
0.50 0.48 0.45 0.44 0.46 0.48 0.46 0.43 0.50 0.42 0.30 0.32 0.32 0.29 0.26 0.29 0.27 0.29 0.32 0.36 0.37 0.44 0.31 0.25 0.21 0.22 0.28 0.20 0.22 0.29 0.27 0.28 0.22 0.22 0.20 0.21 0.26 0.29 0.39 0.29 0.32 0.54 0.55 0.53
0.50 0.49 0.48 0.46 0.46 0.47 0.46 0.43 0.51 0.42 0.33 0.33 0.35 0.34 0.36 0.36 0.35 0.29 0.37 0.35 0.36 0.37 0.27 0.26 0.25 0.26 0.27 0.25 0.27 0.32 0.29 0.26 0.25 0.24 0.22 0.20 0.36 0.32 0.29 0.42 0.52 0.54 0.53 0.53
0.51 0.49 0.48 0.48 0.49 0.48 0.48 0.40 0.50 0.53 0.40 0.35 0.41 0.36 0.39 0.39 0.42 0.40 0.38 0.36 0.36 0.41 0.33 0.32 0.34 0.29 0.30 0.28 0.23 0.31 0.28 0.31 0.30 0.31 0.28 0.37 0.38 0.44 0.51 0.50 0.49 0.55 0.54 0.60
0.55 0.52 0.49 0.49 0.49 0.51 0.50 0.44 0.49 0.48 0.39 0.37 0.38 0.35 0.41 0.46 0.41 0.43 0.33 0.37 0.41 0.41 0.50 0.40 0.37 0.30 0.35 0.28 0.27 0.29 0.35 0.36 0.29 0.30 0.33 0.38 0.41 0.47 0.45 0.57 0.57 0.60 0.61 0.59
0.58 0.57 0.55 0.52 0.50 0.52 0.53 0.48 0.52 0.49 0.42 0.31 0.32 0.46 0.42 0.45 0.48 0.48 0.46 0.42 0.46 0.49 0.48 0.40 0.37 0.32 0.38 0.32 0.36 0.33 0.35 0.38 0.35 0.34 0.37 0.39 0.39 0.45 0.51 0.54 0.54 0.54 0.61 0.70
0.59 0.59 0.58 0.58 0.58 0.58 0.61 0.60 0.59 0.57 0.41 0.33 0.36 0.45 0.47 0.48 0.46 0.44 0.50 0.49 0.47 0.44 0.40 0.38 0.33 0.38 0.37 0.37 0.36 0.32 0.36 0.34 0.32 0.30 0.41 0.41 0.39 0.43 0.46 0.45 0.47 0.59 0.56 0.69
0.60 0.60 0.60 0.60 0.62 0.65 0.58 0.44 0.59 0.62 0.57 0.39 0.30 0.46 0.46 0.49 0.50 0.47 0.47 0.49 0.48 0.47 0.42 0.39 0.40 0.41 0.39 0.32 0.28 0.34 0.40 0.43 0.41 0.37 0.41 0.40 0.40 0.41 0.44 0.44 0.55 0.57 0.58 0.65
0.63 0.61 0.62 0.62 0.63 0.61 0.47 0.44 0.53 0.61 0.61 0.41 0.32 0.31 0.43 0.47 0.47 0.47 0.47 0.49 0.47 0.47 0.42 0.38 0.38 0.37 0.42 0.35 0.28 0.36 0.38 0.38 0.39 0.39 0.39 0.36 0.39 0.39 0.42 0.42 0.50 0.55 0.58 0.59
0.65 0.65 0.64 0.63 0.64 0.62 0.52 0.62 0.62 0.63 0.50 0.45 0.32 0.31 0.37 0.47 0.38 0.37 0.46 0.42 0.44 0.45 0.41 0.42 0.36 0.37 0.37 0.28 0.33 0.35 0.37 0.39 0.38 0.39 0.42 0.43 0.45 0.42 0.38 0.41 0.46 0.48 0.53 0.54
0.67 0.67 0.65 0.62 0.55 0.47 0.51 0.66 0.65 0.63 0.49 0.34 0.33 0.27 0.26 0.43 0.38 0.40 0.40 0.40 0.31 0.39 0.35 0.34 0.35 0.32 0.27 0.30 0.32 0.33 0.35 0.35 0.36 0.42 0.44 0.45 0.45 0.42 0.42 0.39 0.43 0.45 0.47 0.52
0.68 0.61 0.48 0.40 0.50 0.65 0.63 0.53 0.43 0.44 0.46 0.45 0.32 0.35 0.31 0.37 0.35 0.32 0.33 0.36 0.29 0.24 0.29 0.34 0.29 0.27 0.33 0.33 0.34 0.35 0.38 0.39 0.42 0.37 0.35 0.40 0.45 0.46 0.43 0.39 0.40 0.45 0.44 0.47
0.54 0.45 0.42 0.54 0.64 0.53 0.45 0.35 0.33 0.35 0.30 0.34 0.33 0.34 0.32 0.41 0.29 0.28 0.34 0.32 0.32 0.23 0.24 0.25 0.23 0.21 0.31 0.34 0.34 0.38 0.44 0.45 0.43 0.42 0.42 0.44 0.45 0.43 0.41 0.39 0.40 0.40 0.45 0.45
0.53 0.53 0.58 0.55 0.45 0.38 0.32 0.30 0.33 0.29 0.24 0.32 0.29 0.31 0.36 0.41 0.43 0.37 0.36 0.28 0.31 0.22 0.38 0.28 0.21 0.31 0.37 0.39 0.39 0.39 0.41 0.42 0.42 0.42 0.41 0.42 0.43 0.45 0.45 0.42 0.40 0.37 0.45 0.48
0.56 0.48 0.42 0.38 0.36 0.26 0.23 0.21 0.24 0.25 0.31 0.33 0.31 0.30 0.37 0.40 0.39 0.33 0.33 0.27 0.24 0.36 0.27 0.23 0.28 0.34 0.36 0.38 0.39 0.38 0.40 0.42 0.41 0.41 0.42 0.42 0.42 0.44 0.42 0.39 0.38 0.37 0.42 0.47
0.41 0.35 0.27 0.29 0.25 0.27 0.28 0.25 0.27 0.33 0.33 0.31 0.32 0.32 0.31 0.35 0.30 0.31 0.24 0.29 0.31 0.23 0.20 0.22 0.28 0.32 0.36 0.40 0.41 0.39 0.37 0.39 0.40 0.40 0.41 0.41 0.40 0.40 0.40 0.39 0.37 0.35 0.35 0.40
0.32 0.32 0.23 0.24 0.28 0.29 0.30 0.33 0.33 0.33 0.36 0.36 0.33 0.33 0.35 0.31 0.29 0.30 0.29 0.26 0.22 0.26 0.25 0.28 0.32 0.36 0.38 0.38 0.40 0.40 0.39 0.38 0.38 0.38 0.38 0.39 0.39 0.37 0.36 0.35 0.34 0.32 0.33 0.45
0.30 0.28 0.25 0.28 0.26 0.26 0.28 0.29 0.29 0.35 0.36 0.39 0.38 0.32 0.28 0.28 0.30 0.27 0.24 0.23 0.22 0.24 0.29 0.32 0.34 0.35 0.37 0.37 0.38 0.38 0.39 0.40 0.38 0.37 0.37 0.36 0.36 0.35 0.34 0.34 0.34 0.34 0.34 0.36
0.28 0.25 0.29 0.28 0.27 0.26 0.27 0.30 0.30 0.38 0.35 0.31 0.34 0.29 0.26 0.33 0.27 0.24 0.26 0.23 0.26 0.30 0.31 0.34 0.35 0.36 0.37 0.38 0.37 0.37 0.38 0.38 0.37 0.36 0.37 0.35 0.35 0.35 0.35 0.33 0.34 0.34 0.36 0.36

GFSNW_prec_pwat_102.txt.gz
Precipitable_Water
0.40 0.41 0.42 0.42 0.47 0.47 0.48 0.37 0.24 0.45 0.56 0.33 0.31 0.20 0.19 0.22 0.20 0.19 0.16 0.15 0.12 0.12 0.12 0.11 0.12 0.11 0.15 0.16 0.17 0.15 0.15 0.16 0.17 0.16 0.34 0.43 0.42 0.30 0.25 0.25 0.26 0.32 0.32 0.28
0.40 0.41 0.43 0.45 0.45 0.49 0.44 0.31 0.31 0.45 0.53 0.24 0.26 0.26 0.21 0.23 0.23 0.19 0.17 0.15 0.15 0.13 0.11 0.10 0.13 0.14 0.17 0.17 0.15 0.12 0.25 0.19 0.13 0.12 0.13 0.27 0.30 0.36 0.35 0.27 0.28 0.25 0.28 0.30
0.40 0.42 0.44 0.46 0.45 0.48 0.47 0.35 0.23 0.32 0.39 0.38 0.29 0.28 0.24 0.18 0.25 0.22 0.21 0.19 0.18 0.15 0.13 0.14 0.12 0.13 0.16 0.17 0.18 0.23 0.27 0.21 0.22 0.19 0.17 0.27 0.27 0.31 0.34 0.35 0.36 0.27 0.26 0.28
0.42 0.41 0.41 0.44 0.46 0.46 0.47 0.36 0.26 0.28 0.25 0.25 0.27 0.26 0.30 0.29 0.23 0.25 0.22 0.18 0.17 0.17 0.15 0.15 0.14 0.15 0.16 0.18 0.23 0.22 0.22 0.18 0.19 0.19 0.19 0.24 0.25 0.27 0.30 0.29 0.35 0.36 0.38 0.35
0.42 0.41 0.42 0.42 0.47 0.49 0.42 0.31 0.30 0.32 0.30 0.35 0.31 0.25 0.21 0.22 0.26 0.24 0.27 0.20 0.18 0.21 0.17 0.18 0.15 0.17 0.18 0.19 0.23 0.22 0.25 0.17 0.17 0.17 0.16 0.17 0.21 0.24 0.28 0.28 0.28 0.28 0.29 0.30
0.44 0.45 0.40 0.43 0.47 0.51 0.42 0.42 0.42 0.38 0.30 0.27 0.25 0.23 0.28 0.22 0.19 0.29 0.28 0.27 0.29 0.24 0.25 0.32 0.32 0.32 0.31 0.30 0.28 0.26 0.25 0.22 0.17 0.14 0.19 0.15 0.13 0.19 0.24 0.27 0.27 0.25 0.22 0.24
0.47 0.47 0.42 0.45 0.49 0.52 0.50 0.46 0.42 0.33 0.22 0.23 0.23 0.29 0.29 0.28 0.26 0.24 0.27 0.30 0.27 0.31 0.41 0.39 0.34 0.29 0.26 0.25 0.26 0.32 0.27 0.31 0.27 0.21 0.21 0.15 0.14 0.18 0.23 0.25 0.24 0.22 0.23 0.21
0.50 0.47 0.44 0.45 0.48 0.51 0.49 0.47 0.45 0.33 0.22 0.25 0.24 0.26 0.24 0.25 0.27 0.26 0.30 0.30 0.32 0.40 0.36 0.24 0.19 0.19 0.22 0.21 0.23 0.23 0.28 0.29 0.26 0.21 0.18 0.20 0.20 0.24 0.31 0.33 0.32 0.47 0.42 0.47
0.51 0.50 0.45 0.46 0.46 0.48 0.48 0.48 0.52 0.39 0.28 0.24 0.30 0.28 0.27 0.25 0.25 0.24 0.25 0.29 0.37 0.43 0.32 0.22 0.16 0.17 0.24 0.26 0.22 0.25 0.26 0.27 0.23 0.24 0.17 0.10 0.16 0.34 0.37 0.33 0.25 0.57 0.56 0.53
0.52 0.50 0.49 0.48 0.46 0.46 0.47 0.42 0.49 0.45 0.30 0.30 0.32 0.28 0.29 0.32 0.31 0.27 0.31 0.33 0.31 0.37 0.25 0.21 0.20 0.20 0.27 0.22 0.24 0.29 0.24 0.24 0.20 0.22 0.22 0.22 0.26 0.35 0.36 0.20 0.25 0.53 0.59 0.57
0.49 0.50 0.49 0.50 0.48 0.46 0.46 0.43 0.50 0.43 0.32 0.32 0.33 0.34 0.32 0.33 0.34 0.28 0.37 0.34 0.35 0.33 0.27 0.25 0.23 0.22 0.26 0.26 0.28 0.31 0.28 0.25 0.23 0.24 0.21 0.17 0.35 0.34 0.29 0.40 0.48 0.55 0.56 0.57
0.52 0.50 0.50 0.49 0.50 0.47 0.45 0.37 0.46 0.52 0.40 0.33 0.42 0.40 0.39 0.37 0.40 0.38 0.38 0.36 0.36 0.40 0.33 0.32 0.33 0.28 0.30 0.29 0.24 0.39 0.30 0.30 0.30 0.28 0.26 0.38 0.42 0.43 0.49 0.46 0.40 0.46 0.50 0.53
0.56 0.54 0.52 0.50 0.49 0.49 0.47 0.40 0.44 0.47 0.39 0.37 0.35 0.28 0.34 0.40 0.42 0.45 0.32 0.33 0.37 0.37 0.49 0.39 0.36 0.28 0.34 0.28 0.29 0.36 0.37 0.44 0.35 0.39 0.40 0.47 0.47 0.44 0.45 0.45 0.45 0.47 0.47 0.52
0.58 0.56 0.54 0.51 0.49 0.49 0.48 0.43 0.47 0.47 0.42 0.29 0.26 0.38 0.37 0.44 0.42 0.42 0.44 0.41 0.40 0.40 0.43 0.38 0.35 0.30 0.37 0.33 0.36 0.36 0.40 0.39 0.36 0.35 0.39 0.40 0.46 0.46 0.49 0.47 0.46 0.49 0.53 0.60
0.60 0.58 0.56 0.54 0.50 0.49 0.50 0.52 0.53 0.54 0.40 0.30 0.33 0.43 0.44 0.43 0.44 0.41 0.42 0.43 0.43 0.39 0.37 0.37 0.34 0.38 0.37 0.37 0.37 0.31 0.37 0.34 0.31 0.34 0.49 0.44 0.46 0.48 0.45 0.45 0.46 0.56 0.58 0.60
0.62 0.60 0.58 0.57 0.55 0.51 0.49 0.40 0.53 0.57 0.53 0.37 0.28 0.41 0.44 0.47 0.48 0.45 0.44 0.42 0.42 0.45 0.40 0.38 0.41 0.42 0.39 0.31 0.28 0.35 0.41 0.47 0.44 0.41 0.47 0.42 0.43 0.42 0.44 0.43 0.53 0.54 0.57 0.59
0.65 0.61 0.60 0.59 0.58 0.55 0.42 0.39 0.49 0.55 0.57 0.38 0.30 0.28 0.35 0.42 0.48 0.49 0.46 0.46 0.45 0.46 0.43 0.39 0.38 0.37 0.40 0.36 0.29 0.35 0.39 0.43 0.42 0.42 0.40 0.35 0.40 0.40 0.47 0.44 0.49 0.49 0.51 0.56
0.67 0.63 0.61 0.61 0.61 0.61 0.51 0.57 0.65 0.64 0.48 0.43 0.30 0.29 0.34 0.46 0.40 0.38 0.47 0.43 0.45 0.45 0.42 0.42 0.36 0.38 0.38 0.30 0.34 0.36 0.36 0.37 0.39 0.43 0.42 0.46 0.49 0.53 0.44 0.48 0.50 0.45 0.42 0.48
0.67 0.64 0.61 0.60 0.54 0.46 0.50 0.63 0.65 0.63 0.49 0.33 0.33 0.26 0.25 0.46 0.41 0.44 0.44 0.42 0.32 0.42 0.35 0.34 0.35 0.31 0.28 0.32 0.32 0.34 0.37 0.37 0.36 0.38 0.45 0.48 0.41 0.49 0.49 0.49 0.43 0.43 0.40 0.44
0.66 0.59 0.46 0.39 0.48 0.62 0.61 0.52 0.43 0.43 0.45 0.44 0.33 0.35 0.28 0.40 0.38 0.39 0.37 0.39 0.32 0.27 0.30 0.34 0.29 0.26 0.30 0.34 0.35 0.36 0.37 0.40 0.44 0.41 0.40 0.43 0.39 0.41 0.51 0.52 0.48 0.43 0.38 0.38
0.52 0.44 0.41 0.54 0.61 0.51 0.44 0.35 0.33 0.35 0.32 0.35 0.35 0.34 0.31 0.44 0.33 0.32 0.37 0.31 0.32 0.24 0.26 0.27 0.25 0.25 0.36 0.41 0.41 0.41 0.42 0.43 0.44 0.45 0.45 0.44 0.42 0.41 0.41 0.46 0.47 0.41 0.39 0.38
0.54 0.52 0.58 0.55 0.45 0.39 0.32 0.29 0.33 0.30 0.25 0.33 0.29 0.31 0.35 0.41 0.44 0.34 0.34 0.27 0.30 0.20 0.34 0.30 0.23 0.30 0.36 0.38 0.38 0.40 0.41 0.42 0.42 0.43 0.42 0.43 0.43 0.43 0.44 0.46 0.44 0.42 0.40 0.38
0.57 0.48 0.42 0.38 0.36 0.26 0.23 0.21 0.25 0.26 0.33 0.35 0.32 0.33 0.38 0.41 0.41 0.34 0.32 0.26 0.23 0.33 0.27 0.24 0.29 0.33 0.36 0.37 0.38 0.38 0.40 0.40 0.39 0.39 0.41 0.41 0.41 0.42 0.43 0.42 0.43 0.40 0.37 0.37
0.42 0.36 0.28 0.29 0.25 0.28 0.27 0.28 0.27 0.35 0.36 0.32 0.34 0.33 0.33 0.38 0.32 0.31 0.24 0.28 0.31 0.23 0.21 0.22 0.28 0.32 0.34 0.37 0.38 0.39 0.39 0.39 0.37 0.36 0.37 0.38 0.38 0.39 0.41 0.41 0.41 0.40 0.36 0.36
0.34 0.34 0.25 0.27 0.31 0.33 0.33 0.36 0.36 0.38 0.38 0.34 0.33 0.33 0.34 0.31 0.28 0.29 0.27 0.24 0.20 0.23 0.21 0.26 0.32 0.34 0.35 0.35 0.36 0.37 0.39 0.39 0.39 0.38 0.37 0.36 0.36 0.37 0.37 0.39 0.39 0.38 0.36 0.34
0.32 0.31 0.28 0.31 0.28 0.27 0.30 0.31 0.32 0.38 0.37 0.38 0.36 0.30 0.28 0.26 0.27 0.25 0.22 0.21 0.20 0.23 0.28 0.32 0.34 0.34 0.34 0.35 0.38 0.39 0.39 0.39 0.38 0.39 0.38 0.36 0.35 0.34 0.34 0.35 0.35 0.35 0.34 0.32
0.29 0.27 0.32 0.30 0.29 0.27 0.28 0.31 0.32 0.38 0.34 0.28 0.32 0.26 0.25 0.33 0.26 0.25 0.27 0.22 0.24 0.28 0.31 0.33 0.34 0.34 0.35 0.36 0.37 0.37 0.37 0.37 0.37 0.37 0.38 0.37 0.36 0.35 0.34 0.32 0.33 0.34 0.33 0.32

GFSNW_prec_pwat_105.txt.gz
Precipitable_Water
0.40 0.39 0.40 0.42 0.42 0.43 0.42 0.31 0.17 0.38 0.49 0.30 0.30 0.24 0.26 0.26 0.20 0.19 0.23 0.22 0.18 0.15 0.18 0.13 0.12 0.11 0.16 0.21 0.21 0.19 0.17 0.16 0.13 0.16 0.26 0.30 0.32 0.37 0.32 0.17 0.16 0.22 0.25 0.24
0.40 0.39 0.42 0.43 0.46 0.43 0.41 0.27 0.24 0.34 0.37 0.23 0.24 0.28 0.25 0.26 0.22 0.19 0.24 0.22 0.16 0.16 0.13 0.12 0.12 0.11 0.17 0.21 0.20 0.18 0.17 0.17 0.12 0.11 0.10 0.12 0.23 0.29 0.43 0.39 0.26 0.18 0.22 0.24
0.40 0.39 0.39 0.43 0.45 0.46 0.41 0.29 0.18 0.28 0.32 0.32 0.27 0.27 0.26 0.27 0.31 0.23 0.25 0.22 0.19 0.16 0.14 0.15 0.12 0.12 0.14 0.19 0.20 0.23 0.21 0.15 0.12 0.12 0.13 0.21 0.18 0.23 0.32 0.38 0.31 0.28 0.29 0.28
0.38 0.44 0.43 0.43 0.43 0.48 0.43 0.31 0.22 0.26 0.19 0.26 0.27 0.25 0.25 0.24 0.26 0.32 0.27 0.20 0.18 0.17 0.16 0.17 0.15 0.15 0.14 0.14 0.15 0.18 0.19 0.13 0.13 0.11 0.11 0.18 0.19 0.20 0.23 0.25 0.30 0.30 0.35 0.33
0.39 0.42 0.45 0.43 0.45 0.49 0.41 0.26 0.24 0.29 0.26 0.28 0.27 0.30 0.24 0.24 0.27 0.31 0.29 0.25 0.24 0.24 0.19 0.17 0.16 0.21 0.20 0.20 0.23 0.24 0.23 0.16 0.18 0.14 0.13 0.10 0.16 0.20 0.20 0.22 0.24 0.29 0.30 0.31
0.37 0.42 0.45 0.45 0.44 0.47 0.37 0.38 0.37 0.33 0.26 0.29 0.27 0.28 0.25 0.26 0.30 0.29 0.27 0.32 0.29 0.25 0.25 0.32 0.32 0.32 0.30 0.27 0.23 0.22 0.25 0.23 0.21 0.13 0.18 0.14 0.10 0.15 0.18 0.18 0.19 0.22 0.22 0.28
0.43 0.41 0.45 0.49 0.46 0.47 0.42 0.41 0.42 0.31 0.21 0.27 0.27 0.25 0.25 0.23 0.30 0.25 0.25 0.27 0.26 0.32 0.37 0.39 0.34 0.29 0.25 0.23 0.22 0.23 0.20 0.22 0.21 0.15 0.20 0.12 0.10 0.16 0.17 0.15 0.17 0.27 0.38 0.41
0.47 0.48 0.49 0.52 0.47 0.48 0.46 0.44 0.42 0.33 0.23 0.29 0.25 0.25 0.26 0.27 0.28 0.26 0.25 0.26 0.31 0.37 0.32 0.24 0.18 0.17 0.17 0.16 0.18 0.20 0.22 0.21 0.20 0.19 0.19 0.23 0.20 0.29 0.32 0.27 0.26 0.47 0.48 0.47
0.50 0.52 0.51 0.49 0.47 0.47 0.48 0.46 0.50 0.39 0.30 0.24 0.27 0.25 0.29 0.26 0.24 0.23 0.24 0.34 0.39 0.37 0.27 0.22 0.15 0.13 0.16 0.19 0.28 0.29 0.22 0.23 0.22 0.23 0.18 0.14 0.21 0.35 0.39 0.38 0.28 0.54 0.55 0.50
0.54 0.53 0.52 0.50 0.47 0.47 0.46 0.43 0.49 0.43 0.29 0.30 0.30 0.24 0.25 0.32 0.31 0.29 0.30 0.35 0.35 0.37 0.28 0.20 0.16 0.17 0.22 0.21 0.24 0.28 0.24 0.18 0.17 0.21 0.20 0.21 0.28 0.36 0.40 0.22 0.27 0.46 0.45 0.49
0.53 0.53 0.51 0.50 0.48 0.50 0.46 0.38 0.47 0.42 0.32 0.30 0.35 0.33 0.29 0.30 0.31 0.27 0.35 0.31 0.35 0.33 0.25 0.23 0.23 0.22 0.25 0.26 0.27 0.27 0.28 0.18 0.15 0.20 0.18 0.15 0.32 0.34 0.28 0.39 0.43 0.41 0.42 0.44
0.50 0.50 0.49 0.48 0.47 0.49 0.50 0.36 0.44 0.48 0.38 0.34 0.42 0.40 0.39 0.37 0.34 0.31 0.35 0.35 0.35 0.37 0.31 0.33 0.32 0.26 0.28 0.28 0.23 0.41 0.27 0.27 0.23 0.22 0.20 0.37 0.45 0.44 0.52 0.48 0.40 0.40 0.40 0.43
0.51 0.53 0.51 0.49 0.48 0.48 0.49 0.41 0.41 0.43 0.37 0.33 0.31 0.26 0.34 0.39 0.37 0.41 0.29 0.34 0.38 0.35 0.41 0.33 0.31 0.28 0.34 0.25 0.28 0.32 0.39 0.46 0.37 0.34 0.35 0.41 0.44 0.51 0.50 0.48 0.42 0.41 0.46 0.48
0.53 0.55 0.55 0.52 0.50 0.49 0.49 0.43 0.43 0.40 0.38 0.27 0.27 0.38 0.35 0.39 0.41 0.38 0.39 0.37 0.38 0.39 0.38 0.32 0.30 0.27 0.36 0.28 0.30 0.32 0.37 0.42 0.40 0.40 0.47 0.51 0.53 0.53 0.48 0.46 0.46 0.44 0.52 0.55
0.57 0.58 0.58 0.56 0.53 0.51 0.50 0.49 0.48 0.47 0.37 0.28 0.31 0.40 0.39 0.41 0.40 0.40 0.37 0.37 0.38 0.37 0.36 0.33 0.30 0.36 0.34 0.35 0.35 0.31 0.42 0.40 0.36 0.36 0.48 0.48 0.45 0.45 0.46 0.44 0.46 0.53 0.54 0.55
0.60 0.61 0.60 0.59 0.55 0.52 0.47 0.35 0.47 0.52 0.50 0.36 0.26 0.38 0.38 0.45 0.46 0.40 0.40 0.42 0.39 0.38 0.38 0.37 0.39 0.41 0.38 0.30 0.28 0.33 0.38 0.39 0.44 0.41 0.45 0.45 0.44 0.49 0.51 0.50 0.52 0.53 0.52 0.51
0.63 0.63 0.60 0.60 0.58 0.51 0.37 0.32 0.45 0.52 0.53 0.37 0.29 0.27 0.33 0.39 0.39 0.45 0.46 0.46 0.46 0.42 0.39 0.38 0.38 0.36 0.39 0.33 0.27 0.32 0.35 0.37 0.38 0.42 0.44 0.43 0.47 0.45 0.52 0.54 0.50 0.50 0.49 0.47
0.67 0.64 0.61 0.60 0.59 0.55 0.42 0.50 0.60 0.57 0.44 0.40 0.28 0.26 0.30 0.42 0.36 0.38 0.48 0.43 0.44 0.43 0.41 0.41 0.37 0.39 0.38 0.30 0.31 0.35 0.36 0.38 0.38 0.40 0.49 0.49 0.52 0.51 0.59 0.60 0.55 0.49 0.42 0.41
0.68 0.65 0.61 0.58 0.52 0.41 0.42 0.52 0.60 0.62 0.47 0.32 0.30 0.24 0.23 0.42 0.39 0.43 0.44 0.44 0.35 0.45 0.35 0.35 0.38 0.32 0.27 0.29 0.33 0.38 0.42 0.42 0.43 0.45 0.47 0.49 0.47 0.50 0.50 0.54 0.50 0.50 0.44 0.40
0.66 0.58 0.45 0.36 0.45 0.60 0.58 0.50 0.41 0.41 0.42 0.42 0.30 0.35 0.26 0.35 0.37 0.37 0.39 0.41 0.34 0.28 0.31 0.38 0.30 0.27 0.37 0.39 0.40 0.40 0.41 0.43 0.44 0.39 0.38 0.42 0.43 0.43 0.42 0.41 0.46 0.48 0.46 0.42
0.52 0.43 0.40 0.51 0.60 0.50 0.43 0.34 0.32 0.33 0.30 0.33 0.33 0.33 0.29 0.39 0.30 0.33 0.39 0.31 0.33 0.24 0.27 0.28 0.28 0.28 0.34 0.39 0.40 0.42 0.43 0.43 0.43 0.43 0.43 0.44 0.43 0.42 0.42 0.41 0.41 0.42 0.42 0.41
0.51 0.51 0.57 0.54 0.44 0.38 0.31 0.28 0.31 0.29 0.24 0.32 0.29 0.32 0.34 0.38 0.44 0.36 0.35 0.27 0.29 0.20 0.35 0.30 0.24 0.30 0.37 0.38 0.39 0.39 0.41 0.41 0.41 0.42 0.42 0.42 0.41 0.42 0.41 0.41 0.40 0.42 0.42 0.42
0.56 0.47 0.41 0.37 0.35 0.26 0.23 0.21 0.24 0.25 0.30 0.33 0.33 0.29 0.37 0.41 0.41 0.35 0.33 0.25 0.23 0.32 0.26 0.24 0.27 0.34 0.36 0.37 0.38 0.37 0.39 0.39 0.38 0.38 0.39 0.39 0.38 0.39 0.40 0.39 0.40 0.41 0.40 0.40
0.41 0.35 0.27 0.29 0.23 0.26 0.27 0.26 0.25 0.33 0.35 0.34 0.36 0.34 0.35 0.38 0.33 0.32 0.24 0.27 0.30 0.22 0.20 0.20 0.26 0.31 0.34 0.36 0.37 0.37 0.35 0.35 0.36 0.36 0.36 0.36 0.35 0.35 0.37 0.37 0.39 0.38 0.37 0.38
0.36 0.34 0.25 0.27 0.31 0.33 0.34 0.36 0.35 0.38 0.40 0.37 0.34 0.35 0.34 0.32 0.29 0.29 0.26 0.23 0.19 0.21 0.19 0.24 0.30 0.33 0.35 0.35 0.35 0.35 0.35 0.36 0.36 0.36 0.35 0.35 0.36 0.35 0.34 0.35 0.37 0.37 0.37 0.36
0.33 0.32 0.29 0.32 0.30 0.29 0.32 0.34 0.34 0.41 0.40 0.40 0.36 0.29 0.26 0.24 0.26 0.23 0.21 0.21 0.18 0.21 0.27 0.31 0.32 0.34 0.35 0.35 0.35 0.36 0.37 0.35 0.35 0.35 0.35 0.35 0.36 0.35 0.34 0.34 0.34 0.34 0.34 0.34
0.30 0.29 0.33 0.32 0.30 0.28 0.30 0.33 0.34 0.41 0.37 0.28 0.30 0.23 0.22 0.30 0.24 0.22 0.25 0.21 0.24 0.27 0.29 0.31 0.32 0.32 0.33 0.35 0.35 0.35 0.35 0.34 0.34 0.35 0.35 0.36 0.36 0.37 0.35 0.32 0.33 0.33 0.32 0.32